| time (UTC) | temp F | wind direction | speed MPH | gust MPH | rain 1hr in | rain 24hr in | rain mn in | humidity % | barometer mb |
| 20260503213911 | 82 | 69 | 8.0 | 15.0 | 0.00 | 0.11 | 0.00 | 31 | 1006.6 |
| 20260503213814 | 82 | 26 | 9.0 | 15.0 | 0.00 | 0.11 | 0.00 | 30 | 1006.6 |
| 20260503213741 | 82 | 15 | 7.0 | 15.0 | 0.00 | 0.11 | 0.00 | 30 | 1006.6 |
| 20260503213645 | 82 | 27 | 5.0 | 13.0 | 0.00 | 0.11 | 0.00 | 30 | 1006.6 |
| 20260503213521 | 82 | 10 | 7.0 | 14.0 | 0.00 | 0.11 | 0.00 | 30 | 1006.7 |
| 20260503213448 | 82 | 46 | 8.0 | 14.0 | 0.00 | 0.11 | 0.00 | 31 | 1006.7 |
| 20260503213324 | 81 | 33 | 6.0 | 14.0 | 0.00 | 0.11 | 0.00 | 31 | 1006.7 |
| 20260503213231 | 81 | 46 | 5.0 | 14.0 | 0.00 | 0.11 | 0.00 | 32 | 1006.7 |
| 20260503213126 | 81 | 15 | 6.0 | 14.0 | 0.00 | 0.11 | 0.00 | 31 | 1006.8 |
| 20260503213028 | 81 | 36 | 6.0 | 14.0 | 0.00 | 0.11 | 0.00 | 32 | 1006.8 |
| 20260503212913 | 81 | 36 | 8.0 | 14.0 | 0.00 | 0.11 | 0.00 | 31 | 1006.7 |
| 20260503212826 | 81 | 66 | 9.0 | 15.0 | 0.00 | 0.11 | 0.00 | 31 | 1006.8 |
| 20260503212734 | 81 | 28 | 7.0 | 15.0 | 0.00 | 0.11 | 0.00 | 32 | 1006.8 |
| 20260503212627 | 81 | 10 | 6.0 | 15.0 | 0.00 | 0.11 | 0.00 | 31 | 1006.8 |
| 20260503212531 | 81 | 36 | 5.0 | 15.0 | 0.00 | 0.11 | 0.00 | 31 | 1006.9 |
| 20260503212435 | 81 | 338 | 7.0 | 15.0 | 0.00 | 0.11 | 0.00 | 31 | 1006.8 |
| 20260503212312 | 81 | 15 | 8.0 | 15.0 | 0.00 | 0.11 | 0.00 | 30 | 1006.8 |
| 20260503212243 | 81 | 352 | 9.0 | 15.0 | 0.00 | 0.11 | 0.00 | 30 | 1006.9 |
| 20260503212125 | 81 | 346 | 9.0 | 15.0 | 0.00 | 0.11 | 0.00 | 31 | 1006.9 |
| 20260503212041 | 81 | 357 | 8.0 | 15.0 | 0.00 | 0.11 | 0.00 | 31 | 1006.9 |
| 20260503211924 | 81 | 5 | 7.0 | 15.0 | 0.00 | 0.11 | 0.00 | 32 | 1006.9 |
| 20260503211831 | 81 | 5 | 4.0 | 12.0 | 0.00 | 0.11 | 0.00 | 32 | 1006.9 |
| 20260503211727 | 81 | 42 | 5.0 | 12.0 | 0.00 | 0.11 | 0.00 | 32 | 1006.9 |
| 20260503211633 | 81 | 66 | 7.0 | 12.0 | 0.00 | 0.11 | 0.00 | 31 | 1006.9 |
| 20260503211509 | 81 | 10 | 8.0 | 13.0 | 0.00 | 0.11 | 0.00 | 31 | 1006.9 |
| 20260503211410 | 81 | 21 | 6.0 | 13.0 | 0.00 | 0.11 | 0.00 | 32 | 1007.0 |
| 20260503211316 | 81 | 29 | 6.0 | 13.0 | 0.00 | 0.11 | 0.00 | 33 | 1007.0 |
| 20260503211213 | 80 | 5 | 6.0 | 13.0 | 0.00 | 0.11 | 0.00 | 32 | 1007.0 |
| 20260503211137 | 80 | 360 | 5.0 | 13.0 | 0.00 | 0.11 | 0.00 | 31 | 1006.9 |
| 20260503211041 | 80 | 5 | 6.0 | 13.0 | 0.00 | 0.11 | 0.00 | 31 | 1007.0 |
| 20260503210916 | 80 | 356 | 5.0 | 13.0 | 0.00 | 0.11 | 0.00 | 32 | 1006.9 |
| 20260503210813 | 81 | 29 | 7.0 | 13.0 | 0.00 | 0.11 | 0.00 | 31 | 1007.0 |
| 20260503210720 | 81 | 32 | 7.0 | 13.0 | 0.00 | 0.11 | 0.00 | 31 | 1007.0 |
| 20260503210619 | 80 | 34 | 6.0 | 13.0 | 0.00 | 0.11 | 0.00 | 32 | 1007.0 |
| 20260503210526 | 80 | 15 | 5.0 | 13.0 | 0.00 | 0.11 | 0.00 | 32 | 1007.0 |
| 20260503210443 | 80 | 46 | 5.0 | 13.0 | 0.00 | 0.11 | 0.00 | 32 | 1007.0 |
| 20260503210327 | 80 | 335 | 7.0 | 13.0 | 0.00 | 0.11 | 0.00 | 32 | 1007.0 |
| 20260503210224 | 80 | 331 | 6.0 | 13.0 | 0.00 | 0.11 | 0.00 | 32 | 1007.1 |
| 20260503210151 | 80 | 1 | 5.0 | 13.0 | 0.00 | 0.11 | 0.00 | 31 | 1007.1 |
| 20260503210055 | 80 | 354 | 5.0 | 13.0 | 0.00 | 0.11 | 0.00 | 33 | 1007.0 |
| 20260503205916 | 80 | 358 | 6.0 | 13.0 | 0.00 | 0.11 | 0.00 | 33 | 1007.1 |
| 20260503205813 | 80 | 5 | 5.0 | 13.0 | 0.00 | 0.11 | 0.00 | 32 | 1007.1 |
| 20260503205720 | 80 | 5 | 4.0 | 13.0 | 0.00 | 0.11 | 0.00 | 32 | 1007.1 |
| 20260503205614 | 80 | 25 | 5.0 | 13.0 | 0.00 | 0.11 | 0.00 | 33 | 1007.1 |
| 20260503205519 | 80 | 66 | 6.0 | 13.0 | 0.00 | 0.11 | 0.00 | 32 | 1007.1 |
| 20260503205415 | 80 | 46 | 5.0 | 13.0 | 0.00 | 0.11 | 0.00 | 33 | 1007.1 |
| 20260503205342 | 80 | 44 | 7.0 | 13.0 | 0.00 | 0.11 | 0.00 | 33 | 1007.1 |
| 20260503205220 | 80 | 15 | 7.0 | 13.0 | 0.00 | 0.11 | 0.00 | 33 | 1007.2 |
| 20260503205148 | 80 | 15 | 5.0 | 12.0 | 0.00 | 0.11 | 0.00 | 33 | 1007.2 |
| 20260503205032 | 80 | 10 | 5.0 | 12.0 | 0.00 | 0.11 | 0.00 | 33 | 1007.2 |
| 20260503204950 | 80 | 5 | 6.0 | 12.0 | 0.00 | 0.11 | 0.00 | 33 | 1007.2 |
| 20260503204833 | 80 | 25 | 6.0 | 12.0 | 0.00 | 0.11 | 0.00 | 32 | 1007.2 |
| 20260503204720 | 80 | 10 | 6.0 | 13.0 | 0.00 | 0.11 | 0.00 | 33 | 1007.3 |
| 20260503204616 | 80 | 348 | 6.0 | 13.0 | 0.00 | 0.11 | 0.00 | 33 | 1007.2 |
| 20260503204541 | 80 | 19 | 6.0 | 13.0 | 0.00 | 0.11 | 0.00 | 32 | 1007.2 |
| 20260503204446 | 80 | 341 | 4.0 | 13.0 | 0.00 | 0.11 | 0.00 | 32 | 1007.2 |
| 20260503204322 | 80 | 29 | 4.0 | 13.0 | 0.00 | 0.11 | 0.00 | 32 | 1007.2 |
| 20260503204222 | 80 | 358 | 5.0 | 13.0 | 0.00 | 0.11 | 0.00 | 31 | 1007.3 |
| 20260503204129 | 80 | 334 | 6.0 | 13.0 | 0.00 | 0.11 | 0.00 | 32 | 1007.3 |
| 20260503204024 | 80 | 22 | 8.0 | 13.0 | 0.00 | 0.11 | 0.00 | 32 | 1007.4 |
| 20260503203930 | 80 | 10 | 8.0 | 13.0 | 0.00 | 0.11 | 0.00 | 32 | 1007.4 |
| 20260503203827 | 80 | 22 | 6.0 | 11.0 | 0.00 | 0.11 | 0.00 | 32 | 1007.4 |
| 20260503203727 | 80 | 15 | 5.0 | 10.0 | 0.00 | 0.11 | 0.00 | 32 | 1007.4 |
| 20260503203615 | 80 | 65 | 5.0 | 10.0 | 0.00 | 0.11 | 0.00 | 32 | 1007.4 |
| 20260503203513 | 80 | 15 | 5.0 | 10.0 | 0.00 | 0.11 | 0.00 | 33 | 1007.4 |
| 20260503203411 | 80 | 5 | 4.0 | 10.0 | 0.00 | 0.11 | 0.00 | 31 | 1007.4 |
| 20260503203336 | 80 | 46 | 5.0 | 10.0 | 0.00 | 0.11 | 0.00 | 33 | 1007.4 |
| 20260503203212 | 80 | 69 | 4.0 | 10.0 | 0.00 | 0.11 | 0.00 | 33 | 1007.4 |
| 20260503203136 | 79 | 56 | 5.0 | 10.0 | 0.00 | 0.11 | 0.00 | 33 | 1007.4 |
| 20260503203022 | 79 | 10 | 5.0 | 12.0 | 0.00 | 0.11 | 0.00 | 32 | 1007.4 |
| 20260503202924 | 79 | 42 | 4.0 | 12.0 | 0.00 | 0.11 | 0.00 | 33 | 1007.4 |
| 20260503202809 | 79 | 39 | 4.0 | 12.0 | 0.00 | 0.11 | 0.00 | 33 | 1007.4 |
| 20260503202727 | 79 | 44 | 5.0 | 12.0 | 0.00 | 0.11 | 0.00 | 33 | 1007.4 |
| 20260503202634 | 79 | 29 | 4.0 | 12.0 | 0.00 | 0.11 | 0.00 | 34 | 1007.5 |
| 20260503202509 | 79 | 19 | 5.0 | 12.0 | 0.00 | 0.11 | 0.00 | 34 | 1007.5 |
| 20260503202415 | 79 | 24 | 6.0 | 12.0 | 0.00 | 0.11 | 0.00 | 34 | 1007.5 |
| 20260503202333 | 79 | 70 | 7.0 | 12.0 | 0.00 | 0.11 | 0.00 | 33 | 1007.5 |
| 20260503202220 | 79 | 15 | 7.0 | 12.0 | 0.00 | 0.11 | 0.00 | 33 | 1007.5 |
| 20260503202120 | 79 | 359 | 7.0 | 12.0 | 0.00 | 0.11 | 0.00 | 33 | 1007.5 |
| 20260503202027 | 79 | 45 | 7.0 | 12.0 | 0.00 | 0.11 | 0.00 | 33 | 1007.5 |
| 20260503201923 | 79 | 356 | 6.0 | 12.0 | 0.00 | 0.11 | 0.00 | 33 | 1007.5 |
| 20260503201820 | 79 | 40 | 5.0 | 12.0 | 0.00 | 0.11 | 0.00 | 34 | 1007.5 |
| 20260503201728 | 79 | 69 | 4.0 | 12.0 | 0.00 | 0.11 | 0.00 | 34 | 1007.5 |
| 20260503201624 | 78 | 75 | 4.0 | 12.0 | 0.00 | 0.11 | 0.00 | 33 | 1007.5 |
| 20260503201534 | 78 | 15 | 4.0 | 12.0 | 0.00 | 0.11 | 0.00 | 33 | 1007.5 |
| 20260503201409 | 78 | 1 | 5.0 | 12.0 | 0.00 | 0.11 | 0.00 | 34 | 1007.5 |
| 20260503201315 | 78 | 29 | 6.0 | 12.0 | 0.00 | 0.11 | 0.00 | 35 | 1007.6 |
| 20260503201232 | 78 | 15 | 7.0 | 12.0 | 0.00 | 0.11 | 0.00 | 35 | 1007.6 |
| 20260503201115 | 78 | 81 | 5.0 | 12.0 | 0.00 | 0.11 | 0.00 | 34 | 1007.7 |
| 20260503201011 | 78 | 56 | 4.0 | 12.0 | 0.00 | 0.11 | 0.00 | 36 | 1007.7 |
| 20260503200908 | 78 | 58 | 6.0 | 12.0 | 0.00 | 0.11 | 0.00 | 35 | 1007.6 |
| 20260503200819 | 78 | 65 | 6.0 | 12.0 | 0.00 | 0.11 | 0.00 | 35 | 1007.7 |
| 20260503200719 | 77 | 32 | 6.0 | 12.0 | 0.00 | 0.11 | 0.00 | 35 | 1007.7 |
| 20260503200624 | 77 | 20 | 6.0 | 12.0 | 0.00 | 0.11 | 0.00 | 35 | 1007.8 |
| 20260503200520 | 77 | 32 | 6.0 | 12.0 | 0.00 | 0.11 | 0.00 | 35 | 1007.8 |
| 20260503200427 | 77 | 353 | 5.0 | 12.0 | 0.00 | 0.11 | 0.00 | 35 | 1007.8 |
| 20260503200323 | 77 | 21 | 5.0 | 12.0 | 0.00 | 0.11 | 0.00 | 35 | 1007.8 |
| 20260503200219 | 77 | 359 | 5.0 | 12.0 | 0.00 | 0.11 | 0.00 | 35 | 1007.8 |
| 20260503200125 | 77 | 10 | 5.0 | 11.0 | 0.00 | 0.11 | 0.00 | 34 | 1007.8 |
| 20260503200050 | 77 | 348 | 5.0 | 11.0 | 0.00 | 0.11 | 0.00 | 34 | 1007.8 |
| 20260503195926 | 77 | 343 | 6.0 | 11.0 | 0.00 | 0.11 | 0.00 | 36 | 1007.8 |
| 20260503195823 | 77 | 5 | 7.0 | 11.0 | 0.00 | 0.11 | 0.00 | 36 | 1007.9 |
| 20260503195712 | 77 | 15 | 5.0 | 11.0 | 0.00 | 0.11 | 0.00 | 36 | 1007.9 |
| 20260503195626 | 77 | 15 | 4.0 | 11.0 | 0.00 | 0.11 | 0.00 | 37 | 1007.9 |
| 20260503195532 | 77 | 52 | 5.0 | 11.0 | 0.00 | 0.11 | 0.00 | 37 | 1007.9 |
| 20260503195414 | 77 | 40 | 6.0 | 11.0 | 0.00 | 0.11 | 0.00 | 36 | 1007.8 |
| 20260503195310 | 77 | 51 | 6.0 | 11.0 | 0.00 | 0.11 | 0.00 | 36 | 1007.9 |
| 20260503195219 | 77 | 67 | 5.0 | 11.0 | 0.00 | 0.11 | 0.00 | 37 | 1007.9 |
| 20260503195114 | 76 | 22 | 4.0 | 9.0 | 0.00 | 0.11 | 0.00 | 36 | 1007.9 |
| 20260503195041 | 76 | 46 | 5.0 | 9.0 | 0.00 | 0.11 | 0.00 | 35 | 1007.9 |
| 20260503194924 | 76 | 340 | 6.0 | 10.0 | 0.00 | 0.11 | 0.00 | 37 | 1008.0 |
| 20260503194822 | 76 | 357 | 5.0 | 10.0 | 0.00 | 0.11 | 0.00 | 37 | 1008.0 |
| 20260503194725 | 76 | 20 | 5.0 | 10.0 | 0.00 | 0.11 | 0.00 | 38 | 1008.0 |
| 20260503194611 | 76 | 10 | 4.0 | 10.0 | 0.00 | 0.11 | 0.00 | 36 | 1007.9 |
| 20260503194526 | 76 | 32 | 4.0 | 10.0 | 0.00 | 0.11 | 0.00 | 36 | 1008.0 |
| 20260503194433 | 76 | 313 | 6.0 | 10.0 | 0.00 | 0.11 | 0.00 | 35 | 1008.1 |
| 20260503194309 | 76 | 319 | 7.0 | 10.0 | 0.00 | 0.11 | 0.00 | 36 | 1008.1 |
| 20260503194236 | 76 | 326 | 7.0 | 10.0 | 0.00 | 0.11 | 0.00 | 36 | 1008.1 |
| 20260503194116 | 76 | 317 | 6.0 | 11.0 | 0.00 | 0.11 | 0.00 | 37 | 1008.1 |
| 20260503194043 | 76 | 321 | 6.0 | 11.0 | 0.00 | 0.11 | 0.00 | 36 | 1008.2 |
| 20260503193917 | 76 | 357 | 6.0 | 13.0 | 0.00 | 0.11 | 0.00 | 37 | 1008.1 |
| 20260503193823 | 76 | 331 | 5.0 | 13.0 | 0.00 | 0.11 | 0.00 | 37 | 1008.1 |
| 20260503193722 | 76 | 360 | 4.0 | 13.0 | 0.00 | 0.11 | 0.00 | 38 | 1008.1 |
| 20260503193625 | 76 | 25 | 6.0 | 13.0 | 0.00 | 0.11 | 0.00 | 38 | 1008.1 |
| 20260503193523 | 76 | 5 | 6.0 | 13.0 | 0.00 | 0.11 | 0.00 | 38 | 1008.2 |
| 20260503193419 | 76 | 360 | 5.0 | 13.0 | 0.00 | 0.11 | 0.00 | 37 | 1008.1 |
| 20260503193326 | 76 | 15 | 6.0 | 13.0 | 0.00 | 0.11 | 0.00 | 38 | 1008.2 |
| 20260503193223 | 76 | 348 | 7.0 | 13.0 | 0.00 | 0.11 | 0.00 | 38 | 1008.2 |
| 20260503193132 | 76 | 358 | 6.0 | 13.0 | 0.00 | 0.11 | 0.00 | 39 | 1008.2 |
| 20260503193028 | 76 | 349 | 6.0 | 11.0 | 0.00 | 0.11 | 0.00 | 39 | 1008.2 |
| 20260503192933 | 76 | 332 | 7.0 | 11.0 | 0.00 | 0.11 | 0.00 | 39 | 1008.2 |
| 20260503192830 | 76 | 330 | 4.0 | 10.0 | 0.00 | 0.11 | 0.00 | 41 | 1008.3 |
| 20260503192727 | 76 | 358 | 2.0 | 10.0 | 0.00 | 0.11 | 0.00 | 40 | 1008.3 |
| 20260503192634 | 75 | 41 | 2.0 | 10.0 | 0.00 | 0.11 | 0.00 | 39 | 1008.3 |
| 20260503192510 | 75 | 41 | 4.0 | 10.0 | 0.00 | 0.11 | 0.00 | 39 | 1008.3 |
| 20260503192434 | 75 | 36 | 4.0 | 10.0 | 0.00 | 0.11 | 0.00 | 39 | 1008.3 |
| 20260503192310 | 75 | 332 | 4.0 | 10.0 | 0.00 | 0.11 | 0.00 | 39 | 1008.4 |
| 20260503192238 | 75 | 331 | 5.0 | 10.0 | 0.00 | 0.11 | 0.00 | 39 | 1008.4 |
| 20260503192113 | 75 | 359 | 5.0 | 10.0 | 0.00 | 0.11 | 0.00 | 40 | 1008.4 |
| 20260503192014 | 75 | 5 | 4.0 | 10.0 | 0.00 | 0.11 | 0.00 | 40 | 1008.4 |
| 20260503191920 | 75 | 87 | 4.0 | 10.0 | 0.00 | 0.11 | 0.00 | 41 | 1008.4 |
| 20260503191817 | 75 | 51 | 3.0 | 10.0 | 0.00 | 0.11 | 0.00 | 40 | 1008.4 |
| 20260503191715 | 75 | 50 | 4.0 | 10.0 | 0.00 | 0.11 | 0.00 | 41 | 1008.4 |
| 20260503191620 | 75 | 41 | 5.0 | 10.0 | 0.00 | 0.11 | 0.00 | 39 | 1008.4 |
| 20260503191517 | 75 | 15 | 6.0 | 10.0 | 0.00 | 0.11 | 0.00 | 40 | 1008.5 |
| 20260503191425 | 75 | 64 | 5.0 | 10.0 | 0.00 | 0.11 | 0.00 | 39 | 1008.4 |
| 20260503191352 | 75 | 20 | 4.0 | 10.0 | 0.00 | 0.11 | 0.00 | 39 | 1008.4 |
| 20260503191228 | 75 | 20 | 4.0 | 10.0 | 0.00 | 0.11 | 0.00 | 39 | 1008.4 |
| 20260503191122 | 75 | 22 | 5.0 | 10.0 | 0.00 | 0.11 | 0.00 | 43 | 1008.5 |
| 20260503191028 | 74 | 26 | 4.0 | 10.0 | 0.00 | 0.11 | 0.00 | 41 | 1008.5 |
| 20260503190924 | 74 | 56 | 6.0 | 10.0 | 0.00 | 0.11 | 0.00 | 40 | 1008.5 |
| 20260503190831 | 74 | 24 | 6.0 | 10.0 | 0.00 | 0.11 | 0.00 | 40 | 1008.5 |
| 20260503190734 | 74 | 22 | 5.0 | 10.0 | 0.00 | 0.11 | 0.00 | 40 | 1008.5 |
| 20260503190618 | 74 | 343 | 5.0 | 12.0 | 0.00 | 0.11 | 0.00 | 41 | 1008.5 |
| 20260503190412 | 74 | 351 | 6.0 | 12.0 | 0.00 | 0.11 | 0.00 | 41 | 1008.5 |
| 20260503190316 | 74 | 15 | 5.0 | 12.0 | 0.00 | 0.11 | 0.00 | 41 | 1008.5 |
| 20260503190223 | 74 | 29 | 4.0 | 12.0 | 0.00 | 0.11 | 0.00 | 41 | 1008.6 |
| 20260503190116 | 74 | 360 | 5.0 | 12.0 | 0.00 | 0.11 | 0.00 | 42 | 1008.6 |
| 20260503190018 | 74 | 42 | 6.0 | 12.0 | 0.00 | 0.11 | 0.00 | 41 | 1008.6 |
| 20260503185925 | 74 | 35 | 7.0 | 12.0 | 0.00 | 0.11 | 0.00 | 42 | 1008.6 |
| 20260503185821 | 74 | 353 | 6.0 | 12.0 | 0.00 | 0.11 | 0.00 | 42 | 1008.6 |
| 20260503185749 | 74 | 319 | 3.0 | 10.0 | 0.00 | 0.11 | 0.00 | 42 | 1008.6 |
| 20260503185623 | 74 | 345 | 3.0 | 10.0 | 0.00 | 0.11 | 0.00 | 43 | 1008.6 |
| 20260503185528 | 74 | 354 | 4.0 | 10.0 | 0.00 | 0.11 | 0.00 | 42 | 1008.6 |
| 20260503185433 | 74 | 358 | 5.0 | 10.0 | 0.00 | 0.11 | 0.00 | 42 | 1008.6 |
| 20260503185326 | 74 | 356 | 6.0 | 10.0 | 0.00 | 0.11 | 0.00 | 43 | 1008.7 |
| 20260503185237 | 73 | 360 | 5.0 | 10.0 | 0.00 | 0.11 | 0.00 | 42 | 1008.7 |
| 20260503185119 | 73 | 329 | 5.0 | 10.0 | 0.00 | 0.11 | 0.00 | 41 | 1008.7 |
| 20260503185015 | 73 | 338 | 6.0 | 10.0 | 0.00 | 0.11 | 0.00 | 41 | 1008.8 |
| 20260503184913 | 73 | 342 | 6.0 | 10.0 | 0.00 | 0.11 | 0.00 | 42 | 1008.8 |
| 20260503184820 | 73 | 346 | 5.0 | 10.0 | 0.00 | 0.11 | 0.00 | 42 | 1008.8 |
| 20260503184717 | 73 | 5 | 2.0 | 9.0 | 0.00 | 0.11 | 0.00 | 40 | 1008.8 |
| 20260503184622 | 73 | 15 | 2.0 | 10.0 | 0.00 | 0.11 | 0.00 | 42 | 1008.8 |
| 20260503184522 | 73 | 10 | 3.0 | 10.0 | 0.00 | 0.11 | 0.00 | 42 | 1008.8 |
| 20260503184418 | 73 | 325 | 3.0 | 10.0 | 0.00 | 0.11 | 0.00 | 41 | 1008.8 |
| 20260503184324 | 73 | 321 | 5.0 | 10.0 | 0.00 | 0.11 | 0.00 | 41 | 1008.8 |
| 20260503184221 | 73 | 352 | 4.0 | 10.0 | 0.00 | 0.11 | 0.00 | 40 | 1008.8 |
| 20260503184150 | 73 | 324 | 3.0 | 10.0 | 0.00 | 0.11 | 0.00 | 42 | 1008.8 |
| 20260503184024 | 73 | 350 | 4.0 | 10.0 | 0.00 | 0.11 | 0.00 | 41 | 1008.9 |
| 20260503183911 | 73 | 5 | 6.0 | 10.0 | 0.00 | 0.11 | 0.00 | 42 | 1008.9 |
| 20260503183809 | 73 | 5 | 5.0 | 10.0 | 0.00 | 0.11 | 0.00 | 42 | 1008.9 |
| 20260503183716 | 73 | 25 | 4.0 | 10.0 | 0.00 | 0.11 | 0.00 | 41 | 1008.9 |
| 20260503183611 | 73 | 346 | 4.0 | 10.0 | 0.00 | 0.11 | 0.00 | 41 | 1009.0 |
| 20260503183517 | 73 | 23 | 3.0 | 10.0 | 0.00 | 0.11 | 0.00 | 42 | 1009.0 |
| 20260503183415 | 73 | 33 | 3.0 | 10.0 | 0.00 | 0.11 | 0.00 | 41 | 1009.0 |
| 20260503183310 | 73 | 345 | 4.0 | 10.0 | 0.00 | 0.11 | 0.00 | 42 | 1009.0 |
| 20260503183217 | 72 | 61 | 3.0 | 10.0 | 0.00 | 0.11 | 0.00 | 43 | 1009.0 |
| 20260503183117 | 72 | 30 | 4.0 | 10.0 | 0.00 | 0.11 | 0.00 | 42 | 1009.0 |
| 20260503183023 | 72 | 25 | 5.0 | 10.0 | 0.00 | 0.11 | 0.00 | 44 | 1009.0 |
| 20260503182912 | 72 | 41 | 4.0 | 10.0 | 0.00 | 0.11 | 0.00 | 43 | 1009.0 |
| 20260503182819 | 72 | 31 | 2.0 | 10.0 | 0.00 | 0.11 | 0.00 | 43 | 1009.0 |
| 20260503182719 | 72 | 5 | 3.0 | 10.0 | 0.00 | 0.11 | 0.00 | 43 | 1009.1 |
| 20260503182644 | 72 | 5 | 5.0 | 10.0 | 0.00 | 0.11 | 0.00 | 43 | 1009.1 |
| 20260503182520 | 72 | 344 | 5.0 | 10.0 | 0.00 | 0.11 | 0.00 | 43 | 1009.1 |
| 20260503182412 | 72 | 5 | 6.0 | 10.0 | 0.00 | 0.11 | 0.00 | 43 | 1009.1 |
| 20260503182328 | 72 | 10 | 6.0 | 10.0 | 0.00 | 0.11 | 0.00 | 43 | 1009.1 |
| 20260503182235 | 72 | 10 | 4.0 | 8.0 | 0.00 | 0.11 | 0.00 | 44 | 1009.1 |
| 20260503182111 | 71 | 339 | 3.0 | 8.0 | 0.00 | 0.11 | 0.00 | 44 | 1009.1 |
| 20260503182038 | 71 | 329 | 3.0 | 10.0 | 0.00 | 0.11 | 0.00 | 45 | 1009.1 |
| 20260503181933 | 71 | 24 | 5.0 | 10.0 | 0.00 | 0.11 | 0.00 | 44 | 1009.1 |
| 20260503181838 | 71 | 23 | 4.0 | 10.0 | 0.00 | 0.11 | 0.00 | 45 | 1009.1 |
| 20260503181719 | 71 | 56 | 3.0 | 10.0 | 0.00 | 0.11 | 0.00 | 45 | 1009.1 |
| 20260503181623 | 71 | 24 | 4.0 | 11.0 | 0.00 | 0.11 | 0.00 | 44 | 1009.1 |
| 20260503181521 | 71 | 22 | 3.0 | 11.0 | 0.00 | 0.11 | 0.00 | 44 | 1009.1 |
| 20260503181426 | 71 | 28 | 4.0 | 11.0 | 0.00 | 0.11 | 0.00 | 45 | 1009.1 |
| 20260503181323 | 71 | 30 | 5.0 | 11.0 | 0.00 | 0.11 | 0.00 | 44 | 1009.2 |
| 20260503181229 | 71 | 22 | 6.0 | 11.0 | 0.00 | 0.11 | 0.00 | 45 | 1009.2 |
| 20260503181124 | 71 | 27 | 5.0 | 11.0 | 0.00 | 0.11 | 0.00 | 45 | 1009.2 |
| 20260503181031 | 71 | 20 | 5.0 | 11.0 | 0.00 | 0.11 | 0.00 | 44 | 1009.2 |
| 20260503180931 | 71 | 350 | 6.0 | 11.0 | 0.00 | 0.11 | 0.00 | 45 | 1009.2 |
| 20260503180816 | 71 | 5 | 6.0 | 11.0 | 0.00 | 0.11 | 0.00 | 45 | 1009.2 |
| 20260503180712 | 71 | 357 | 6.0 | 10.0 | 0.00 | 0.11 | 0.00 | 46 | 1009.3 |
| 20260503180638 | 71 | 359 | 5.0 | 10.0 | 0.00 | 0.11 | 0.00 | 46 | 1009.3 |
| 20260503180533 | 71 | 360 | 5.0 | 10.0 | 0.00 | 0.11 | 0.00 | 46 | 1009.2 |
| 20260503180419 | 71 | 15 | 5.0 | 10.0 | 0.00 | 0.11 | 0.00 | 46 | 1009.3 |
| 20260503180316 | 71 | 360 | 6.0 | 10.0 | 0.00 | 0.11 | 0.00 | 47 | 1009.3 |
| 20260503180219 | 71 | 21 | 5.0 | 10.0 | 0.00 | 0.11 | 0.00 | 48 | 1009.2 |
| 20260503180123 | 70 | 356 | 4.0 | 10.0 | 0.00 | 0.11 | 0.00 | 46 | 1009.3 |
| 20260503180029 | 70 | 325 | 4.0 | 10.0 | 0.00 | 0.11 | 0.00 | 46 | 1009.3 |
| 20260503175924 | 70 | 10 | 4.0 | 10.0 | 0.00 | 0.11 | 0.00 | 47 | 1009.3 |
| 20260503175822 | 70 | 29 | 5.0 | 10.0 | 0.00 | 0.11 | 0.00 | 47 | 1009.3 |
| 20260503175729 | 70 | 40 | 5.0 | 10.0 | 0.00 | 0.11 | 0.00 | 46 | 1009.3 |
| 20260503175624 | 70 | 15 | 5.0 | 10.0 | 0.00 | 0.11 | 0.00 | 47 | 1009.3 |
| 20260503175533 | 70 | 26 | 4.0 | 10.0 | 0.00 | 0.11 | 0.00 | 47 | 1009.3 |
| 20260503175437 | 70 | 15 | 3.0 | 9.0 | 0.00 | 0.11 | 0.00 | 48 | 1009.3 |
| 20260503175311 | 70 | 349 | 4.0 | 9.0 | 0.00 | 0.11 | 0.00 | 47 | 1009.3 |
| 20260503175210 | 70 | 360 | 5.0 | 9.0 | 0.00 | 0.11 | 0.00 | 47 | 1009.3 |
| 20260503175115 | 70 | 356 | 6.0 | 9.0 | 0.00 | 0.11 | 0.00 | 47 | 1009.3 |
| 20260503175012 | 70 | 15 | 4.0 | 9.0 | 0.00 | 0.11 | 0.00 | 48 | 1009.3 |
| 20260503174918 | 70 | 333 | 5.0 | 9.0 | 0.00 | 0.11 | 0.00 | 48 | 1009.3 |
| 20260503174818 | 70 | 43 | 5.0 | 9.0 | 0.00 | 0.11 | 0.00 | 47 | 1009.3 |
| 20260503174743 | 70 | 20 | 4.0 | 9.0 | 0.00 | 0.11 | 0.00 | 47 | 1009.3 |
| 20260503174645 | 70 | 22 | 4.0 | 9.0 | 0.00 | 0.11 | 0.00 | 48 | 1009.3 |
| 20260503174519 | 70 | 23 | 5.0 | 9.0 | 0.00 | 0.11 | 0.00 | 47 | 1009.3 |
| 20260503174417 | 70 | 15 | 4.0 | 9.0 | 0.00 | 0.11 | 0.00 | 46 | 1009.3 |
| 20260503174344 | 69 | 5 | 3.0 | 9.0 | 0.00 | 0.11 | 0.00 | 46 | 1009.3 |
| 20260503174232 | 69 | 21 | 3.0 | 9.0 | 0.00 | 0.11 | 0.00 | 48 | 1009.3 |
| 20260503174125 | 69 | 359 | 4.0 | 9.0 | 0.00 | 0.11 | 0.00 | 48 | 1009.3 |
| 20260503174035 | 69 | 350 | 5.0 | 9.0 | 0.00 | 0.11 | 0.00 | 49 | 1009.3 |
| 20260503173913 | 69 | 354 | 5.0 | 9.0 | 0.00 | 0.11 | 0.00 | 51 | 1009.3 |
| 20260503173838 | 69 | 24 | 4.0 | 8.0 | 0.00 | 0.11 | 0.00 | 50 | 1009.4 |
| 20260503173737 | 69 | 15 | 4.0 | 8.0 | 0.00 | 0.11 | 0.00 | 47 | 1009.3 |
| 20260503173620 | 69 | 10 | 5.0 | 8.0 | 0.00 | 0.11 | 0.00 | 47 | 1009.3 |
| 20260503173518 | 69 | 36 | 3.0 | 8.0 | 0.00 | 0.11 | 0.00 | 48 | 1009.3 |
| 20260503173423 | 69 | 70 | 3.0 | 8.0 | 0.00 | 0.11 | 0.00 | 47 | 1009.4 |
| 20260503173349 | 69 | 5 | 4.0 | 8.0 | 0.00 | 0.11 | 0.00 | 47 | 1009.4 |
| 20260503173210 | 69 | 5 | 3.0 | 8.0 | 0.00 | 0.11 | 0.00 | 49 | 1009.4 |
| 20260503173135 | 69 | 21 | 2.0 | 7.0 | 0.00 | 0.11 | 0.00 | 48 | 1009.3 |
| 20260503173010 | 69 | 22 | 2.0 | 7.0 | 0.00 | 0.11 | 0.00 | 49 | 1009.4 |
| 20260503172938 | 69 | 45 | 3.0 | 7.0 | 0.00 | 0.11 | 0.00 | 49 | 1009.4 |
| 20260503172814 | 69 | 45 | 3.0 | 7.0 | 0.00 | 0.11 | 0.00 | 48 | 1009.4 |
| 20260503172721 | 69 | 46 | 2.0 | 7.0 | 0.00 | 0.11 | 0.00 | 50 | 1009.4 |
| 20260503172636 | 68 | 50 | 2.0 | 7.0 | 0.00 | 0.11 | 0.00 | 50 | 1009.4 |
| 20260503172521 | 68 | 51 | 2.0 | 7.0 | 0.00 | 0.11 | 0.00 | 50 | 1009.4 |
| 20260503172422 | 68 | 51 | 3.0 | 7.0 | 0.00 | 0.11 | 0.00 | 49 | 1009.4 |
| 20260503172330 | 68 | 50 | 3.0 | 7.0 | 0.00 | 0.11 | 0.00 | 50 | 1009.4 |
| 20260503172228 | 68 | 52 | 3.0 | 8.0 | 0.00 | 0.11 | 0.00 | 50 | 1009.4 |
| 20260503172123 | 68 | 33 | 2.0 | 8.0 | 0.00 | 0.11 | 0.00 | 51 | 1009.4 |
| 20260503172029 | 68 | 33 | 2.0 | 8.0 | 0.00 | 0.11 | 0.00 | 52 | 1009.4 |
| 20260503171926 | 68 | 30 | 3.0 | 9.0 | 0.00 | 0.11 | 0.00 | 51 | 1009.4 |
| 20260503171836 | 68 | 29 | 4.0 | 10.0 | 0.00 | 0.11 | 0.00 | 50 | 1009.5 |
| 20260503171715 | 68 | 23 | 4.0 | 10.0 | 0.00 | 0.11 | 0.00 | 50 | 1009.5 |
| 20260503171610 | 68 | 5 | 5.0 | 10.0 | 0.00 | 0.11 | 0.00 | 50 | 1009.5 |
| 20260503171516 | 68 | 5 | 5.0 | 10.0 | 0.00 | 0.11 | 0.00 | 49 | 1009.5 |
| 20260503171414 | 68 | 354 | 4.0 | 10.0 | 0.00 | 0.11 | 0.00 | 50 | 1009.5 |
| 20260503171312 | 67 | 356 | 4.0 | 10.0 | 0.00 | 0.11 | 0.00 | 50 | 1009.5 |
| 20260503171223 | 67 | 358 | 4.0 | 10.0 | 0.00 | 0.11 | 0.00 | 50 | 1009.5 |
| 20260503171130 | 67 | 24 | 4.0 | 10.0 | 0.00 | 0.11 | 0.00 | 50 | 1009.5 |
| 20260503171026 | 67 | 25 | 5.0 | 10.0 | 0.00 | 0.11 | 0.00 | 53 | 1009.5 |
| 20260503170924 | 67 | 34 | 5.0 | 9.0 | 0.00 | 0.11 | 0.00 | 52 | 1009.5 |
| 20260503170826 | 67 | 26 | 6.0 | 9.0 | 0.00 | 0.11 | 0.00 | 53 | 1009.5 |
| 20260503170723 | 67 | 32 | 5.0 | 9.0 | 0.00 | 0.11 | 0.00 | 52 | 1009.5 |
| 20260503170632 | 67 | 29 | 3.0 | 9.0 | 0.00 | 0.11 | 0.00 | 52 | 1009.5 |
| 20260503170511 | 67 | 242 | 2.0 | 6.0 | 0.00 | 0.11 | 0.00 | 52 | 1009.5 |
| 20260503170435 | 67 | 242 | 2.0 | 6.0 | 0.00 | 0.11 | 0.00 | 54 | 1009.5 |
| 20260503170311 | 67 | 242 | 1.0 | 6.0 | 0.00 | 0.11 | 0.00 | 54 | 1009.5 |
| 20260503170209 | 66 | 237 | 0.0 | 6.0 | 0.00 | 0.11 | 0.00 | 55 | 1009.5 |
| 20260503170138 | 66 | 237 | 0.0 | 6.0 | 0.00 | 0.11 | 0.00 | 55 | 1009.5 |
| 20260503160120 | 59 | 184 | 1.0 | 3.0 | 0.00 | 0.11 | 0.00 | 68 | 1009.9 |
| 20260503150923 | 50 | 185 | 3.0 | 6.0 | 0.00 | 0.11 | 0.00 | 81 | 1009.9 |
| 20260503150830 | 49 | 185 | 3.0 | 5.0 | 0.00 | 0.11 | 0.00 | 82 | 1009.9 |
| 20260503150713 | 49 | 185 | 2.0 | 5.0 | 0.00 | 0.11 | 0.00 | 82 | 1010.0 |
| 20260503150623 | 49 | 185 | 2.0 | 5.0 | 0.00 | 0.11 | 0.00 | 82 | 1010.0 |
| 20260503150529 | 49 | 185 | 2.0 | 5.0 | 0.00 | 0.11 | 0.00 | 82 | 1010.0 |
| 20260503150425 | 49 | 185 | 3.0 | 5.0 | 0.00 | 0.11 | 0.00 | 82 | 1010.0 |
| 20260503150332 | 49 | 185 | 3.0 | 5.0 | 0.00 | 0.11 | 0.00 | 83 | 1010.0 |
| 20260503150210 | 48 | 185 | 1.0 | 6.0 | 0.00 | 0.11 | 0.00 | 83 | 1010.0 |
| 20260503150118 | 48 | 185 | 0.0 | 6.0 | 0.00 | 0.11 | 0.00 | 83 | 1009.9 |
| 20260503140217 | 45 | 179 | 1.0 | 3.0 | 0.00 | 0.11 | 0.00 | 84 | 1009.9 |
| 20260503140142 | 45 | 179 | 2.0 | 3.0 | 0.00 | 0.11 | 0.00 | 84 | 1009.9 |
| 20260503131416 | 46 | 178 | 0.0 | 0.0 | 0.00 | 0.11 | 0.00 | 80 | 1009.6 |
| 20260503131311 | 46 | 178 | 0.0 | 1.0 | 0.00 | 0.11 | 0.00 | 80 | 1009.6 |
| 20260503131218 | 46 | 178 | 0.0 | 2.0 | 0.00 | 0.11 | 0.00 | 80 | 1009.6 |
| 20260503131143 | 46 | 178 | 0.0 | 3.0 | 0.00 | 0.11 | 0.00 | 80 | 1009.6 |
| 20260503131038 | 46 | 178 | 0.0 | 3.0 | 0.00 | 0.11 | 0.00 | 80 | 1009.6 |
| 20260503130943 | 46 | 178 | 0.0 | 3.0 | 0.00 | 0.11 | 0.00 | 80 | 1009.6 |
| 20260503130819 | 46 | 178 | 0.0 | 3.0 | 0.00 | 0.11 | 0.00 | 80 | 1009.6 |
| 20260503130712 | 46 | 178 | 0.0 | 3.0 | 0.00 | 0.11 | 0.00 | 80 | 1009.5 |
| 20260503130626 | 46 | 178 | 0.0 | 3.0 | 0.00 | 0.11 | 0.00 | 80 | 1009.6 |
| 20260503130529 | 46 | 178 | 0.0 | 3.0 | 0.00 | 0.11 | 0.00 | 80 | 1009.6 |
| 20260503130426 | 46 | 178 | 1.0 | 3.0 | 0.00 | 0.11 | 0.00 | 80 | 1009.5 |
| 20260503130323 | 46 | 178 | 1.0 | 3.0 | 0.00 | 0.11 | 0.00 | 80 | 1009.5 |
| 20260503130210 | 46 | 178 | 0.0 | 2.0 | 0.00 | 0.11 | 0.00 | 80 | 1009.6 |
| 20260503130109 | 46 | 178 | 0.0 | 2.0 | 0.00 | 0.11 | 0.00 | 80 | 1009.6 |
| 20260503120220 | 48 | 179 | 0.0 | 0.0 | 0.00 | 0.11 | 0.00 | 79 | 1009.4 |
| 20260503120115 | 48 | 179 | 0.0 | 0.0 | 0.00 | 0.11 | 0.00 | 79 | 1009.4 |
| 20260503110812 | 50 | 179 | 0.0 | 2.0 | 0.00 | 0.11 | 0.00 | 76 | 1009.4 |
| 20260503110710 | 50 | 179 | 0.0 | 2.0 | 0.00 | 0.11 | 0.00 | 76 | 1009.4 |
| 20260503110633 | 50 | 179 | 0.0 | 2.0 | 0.00 | 0.11 | 0.00 | 76 | 1009.4 |
| 20260503110517 | 50 | 179 | 0.0 | 2.0 | 0.00 | 0.11 | 0.00 | 76 | 1009.4 |
| 20260503110414 | 50 | 179 | 0.0 | 2.0 | 0.00 | 0.11 | 0.00 | 76 | 1009.4 |
| 20260503110325 | 50 | 179 | 0.0 | 2.0 | 0.00 | 0.11 | 0.00 | 76 | 1009.4 |
| 20260503110223 | 50 | 179 | 0.0 | 2.0 | 0.00 | 0.11 | 0.00 | 76 | 1009.4 |
| 20260503110119 | 50 | 179 | 0.0 | 2.0 | 0.00 | 0.11 | 0.00 | 76 | 1009.4 |
| 20260503100235 | 50 | 179 | 0.0 | 2.0 | 0.00 | 0.11 | 0.00 | 77 | 1009.4 |
| 20260503100114 | 50 | 179 | 0.0 | 2.0 | 0.00 | 0.11 | 0.00 | 77 | 1009.4 |
| 20260503090421 | 52 | 159 | 2.0 | 3.0 | 0.00 | 0.11 | 0.00 | 75 | 1009.4 |
| 20260503090319 | 52 | 159 | 1.0 | 3.0 | 0.00 | 0.11 | 0.00 | 75 | 1009.4 |
| 20260503090227 | 52 | 159 | 1.0 | 3.0 | 0.00 | 0.11 | 0.00 | 75 | 1009.4 |
| 20260503090123 | 52 | 159 | 0.0 | 3.0 | 0.00 | 0.11 | 0.00 | 75 | 1009.4 |
| 20260503081617 | 53 | 159 | 3.0 | 5.0 | 0.00 | 0.11 | 0.00 | 74 | 1009.1 |
| 20260503081515 | 53 | 159 | 2.0 | 5.0 | 0.00 | 0.11 | 0.00 | 74 | 1009.1 |
| 20260503081412 | 53 | 159 | 2.0 | 5.0 | 0.00 | 0.11 | 0.00 | 74 | 1009.1 |
| 20260503081319 | 53 | 159 | 2.0 | 5.0 | 0.00 | 0.11 | 0.00 | 74 | 1009.1 |
| 20260503081217 | 53 | 159 | 2.0 | 5.0 | 0.00 | 0.11 | 0.00 | 74 | 1009.1 |
| 20260503081123 | 53 | 159 | 2.0 | 5.0 | 0.00 | 0.11 | 0.00 | 74 | 1009.1 |
| 20260503081024 | 53 | 159 | 2.0 | 5.0 | 0.00 | 0.11 | 0.00 | 74 | 1009.0 |
| 20260503080930 | 53 | 159 | 2.0 | 5.0 | 0.00 | 0.11 | 0.00 | 74 | 1009.0 |
| 20260503080827 | 53 | 159 | 2.0 | 5.0 | 0.00 | 0.11 | 0.00 | 74 | 1009.1 |
| 20260503080724 | 53 | 159 | 2.0 | 5.0 | 0.00 | 0.11 | 0.00 | 74 | 1009.2 |
| 20260503080633 | 53 | 159 | 2.0 | 5.0 | 0.00 | 0.11 | 0.00 | 74 | 1009.2 |
| 20260503080508 | 53 | 159 | 2.0 | 5.0 | 0.00 | 0.11 | 0.00 | 74 | 1009.2 |
| 20260503080409 | 53 | 159 | 2.0 | 5.0 | 0.00 | 0.11 | 0.00 | 74 | 1009.3 |
| 20260503080315 | 53 | 159 | 2.0 | 5.0 | 0.00 | 0.11 | 0.00 | 74 | 1009.2 |
| 20260503080211 | 53 | 159 | 2.0 | 5.0 | 0.00 | 0.11 | 0.00 | 74 | 1009.3 |
| 20260503080137 | 53 | 159 | 2.0 | 5.0 | 0.00 | 0.11 | 0.00 | 74 | 1009.3 |
| 20260503072913 | 55 | 171 | 4.0 | 6.0 | 0.00 | 0.11 | 0.00 | 71 | 1009.6 |
| 20260503072811 | 55 | 171 | 3.0 | 6.0 | 0.00 | 0.11 | 0.00 | 71 | 1009.6 |
| 20260503072719 | 55 | 171 | 3.0 | 6.0 | 0.00 | 0.11 | 0.00 | 71 | 1009.6 |
| 20260503072622 | 55 | 171 | 3.0 | 6.0 | 0.00 | 0.11 | 0.00 | 71 | 1009.6 |
| 20260503072517 | 55 | 171 | 4.0 | 6.0 | 0.00 | 0.11 | 0.00 | 71 | 1009.6 |
| 20260503072415 | 55 | 171 | 5.0 | 6.0 | 0.00 | 0.11 | 0.00 | 70 | 1009.7 |
| 20260503072327 | 55 | 171 | 4.0 | 6.0 | 0.00 | 0.11 | 0.00 | 70 | 1009.7 |
| 20260503072224 | 55 | 171 | 3.0 | 6.0 | 0.00 | 0.11 | 0.00 | 70 | 1009.6 |
| 20260503072152 | 55 | 172 | 3.0 | 5.0 | 0.00 | 0.11 | 0.00 | 70 | 1009.6 |
| 20260503072055 | 55 | 172 | 3.0 | 5.0 | 0.00 | 0.11 | 0.00 | 70 | 1009.6 |
| 20260503071911 | 55 | 172 | 3.0 | 5.0 | 0.00 | 0.11 | 0.00 | 70 | 1009.5 |
| 20260503071809 | 55 | 172 | 2.0 | 5.0 | 0.00 | 0.11 | 0.00 | 70 | 1009.5 |
| 20260503071717 | 55 | 172 | 2.0 | 5.0 | 0.00 | 0.11 | 0.00 | 69 | 1009.5 |
| 20260503071620 | 55 | 172 | 2.0 | 5.0 | 0.00 | 0.11 | 0.00 | 69 | 1009.5 |
| 20260503071521 | 55 | 172 | 2.0 | 5.0 | 0.00 | 0.11 | 0.00 | 69 | 1009.5 |
| 20260503071427 | 55 | 172 | 2.0 | 6.0 | 0.00 | 0.11 | 0.00 | 69 | 1009.5 |
| 20260503071323 | 55 | 172 | 2.0 | 6.0 | 0.00 | 0.11 | 0.00 | 69 | 1009.5 |
| 20260503071251 | 55 | 172 | 3.0 | 6.0 | 0.00 | 0.11 | 0.00 | 69 | 1009.5 |
| 20260503071125 | 55 | 172 | 3.0 | 6.0 | 0.00 | 0.11 | 0.00 | 69 | 1009.5 |
| 20260503071010 | 55 | 172 | 3.0 | 6.0 | 0.00 | 0.11 | 0.00 | 69 | 1009.5 |
| 20260503070908 | 55 | 172 | 3.0 | 6.0 | 0.00 | 0.11 | 0.00 | 69 | 1009.5 |
| 20260503070833 | 55 | 172 | 3.0 | 6.0 | 0.00 | 0.11 | 0.00 | 69 | 1009.5 |
| 20260503070712 | 55 | 172 | 4.0 | 6.0 | 0.00 | 0.11 | 0.00 | 69 | 1009.5 |
| 20260503070638 | 55 | 172 | 4.0 | 6.0 | 0.00 | 0.11 | 0.11 | 69 | 1009.5 |
| 20260503070539 | 55 | 172 | 5.0 | 6.0 | 0.00 | 0.11 | 0.11 | 68 | 1009.5 |
| 20260503070416 | 55 | 172 | 5.0 | 6.0 | 0.00 | 0.11 | 0.11 | 68 | 1009.5 |
| 20260503070313 | 55 | 172 | 5.0 | 6.0 | 0.00 | 0.11 | 0.11 | 68 | 1009.6 |
| 20260503070239 | 55 | 173 | 5.0 | 6.0 | 0.00 | 0.11 | 0.11 | 68 | 1009.6 |
| 20260503070136 | 55 | 173 | 5.0 | 6.0 | 0.00 | 0.11 | 0.11 | 68 | 1009.5 |
| 20260503060314 | 58 | 187 | 4.0 | 5.0 | 0.00 | 0.11 | 0.11 | 65 | 1009.4 |
| 20260503060222 | 58 | 173 | 5.0 | 6.0 | 0.00 | 0.11 | 0.11 | 65 | 1009.4 |
| 20260503060118 | 58 | 173 | 4.0 | 6.0 | 0.00 | 0.11 | 0.11 | 65 | 1009.4 |
| 20260503055115 | 58 | 154 | 4.0 | 7.0 | 0.00 | 0.11 | 0.11 | 64 | 1009.1 |
| 20260503055012 | 58 | 155 | 4.0 | 7.0 | 0.00 | 0.11 | 0.11 | 64 | 1009.1 |
| 20260503054916 | 58 | 144 | 4.0 | 5.0 | 0.00 | 0.11 | 0.11 | 64 | 1009.1 |
| 20260503054812 | 58 | 141 | 4.0 | 6.0 | 0.00 | 0.11 | 0.11 | 63 | 1009.1 |
| 20260503054712 | 58 | 140 | 4.0 | 6.0 | 0.00 | 0.11 | 0.11 | 63 | 1009.1 |
| 20260503054620 | 58 | 139 | 4.0 | 6.0 | 0.00 | 0.11 | 0.11 | 63 | 1009.0 |
| 20260503054518 | 58 | 138 | 3.0 | 6.0 | 0.00 | 0.11 | 0.11 | 63 | 1009.0 |
| 20260503054423 | 58 | 138 | 3.0 | 6.0 | 0.00 | 0.11 | 0.11 | 63 | 1009.0 |
| 20260503054330 | 58 | 138 | 4.0 | 6.0 | 0.00 | 0.11 | 0.11 | 62 | 1009.0 |
| 20260503054228 | 59 | 136 | 4.0 | 6.0 | 0.00 | 0.11 | 0.11 | 62 | 1008.9 |
| 20260503054123 | 59 | 130 | 3.0 | 6.0 | 0.00 | 0.11 | 0.11 | 62 | 1009.0 |
| 20260503054030 | 59 | 88 | 2.0 | 4.0 | 0.00 | 0.11 | 0.11 | 62 | 1009.0 |
| 20260503053911 | 59 | 15 | 1.0 | 3.0 | 0.00 | 0.11 | 0.11 | 63 | 1008.9 |
| 20260503053809 | 59 | 10 | 0.0 | 2.0 | 0.00 | 0.11 | 0.11 | 63 | 1008.9 |
| 20260503053718 | 59 | 10 | 0.0 | 2.0 | 0.00 | 0.11 | 0.11 | 63 | 1008.9 |
| 20260503053613 | 59 | 10 | 0.0 | 2.0 | 0.00 | 0.11 | 0.11 | 63 | 1008.9 |
| 20260503053510 | 59 | 10 | 0.0 | 2.0 | 0.00 | 0.11 | 0.11 | 63 | 1008.9 |
| 20260503053415 | 59 | 10 | 1.0 | 2.0 | 0.00 | 0.11 | 0.11 | 62 | 1009.0 |
| 20260503053316 | 58 | 10 | 1.0 | 2.0 | 0.00 | 0.11 | 0.11 | 61 | 1008.9 |
| 20260503053225 | 58 | 10 | 1.0 | 2.0 | 0.00 | 0.11 | 0.11 | 61 | 1008.9 |
| 20260503053141 | 58 | 10 | 1.0 | 2.0 | 0.00 | 0.11 | 0.11 | 61 | 1009.0 |
| 20260503053025 | 58 | 10 | 1.0 | 3.0 | 0.00 | 0.11 | 0.11 | 62 | 1009.0 |
| 20260503052931 | 58 | 10 | 1.0 | 3.0 | 0.00 | 0.11 | 0.11 | 62 | 1009.0 |
| 20260503052809 | 58 | 10 | 2.0 | 3.0 | 0.00 | 0.11 | 0.11 | 62 | 1008.9 |
| 20260503052729 | 58 | 10 | 2.0 | 3.0 | 0.00 | 0.11 | 0.11 | 62 | 1008.9 |
| 20260503052616 | 58 | 10 | 2.0 | 3.0 | 0.00 | 0.11 | 0.11 | 62 | 1008.9 |
| 20260503052513 | 58 | 10 | 2.0 | 3.0 | 0.00 | 0.11 | 0.11 | 62 | 1008.9 |
| 20260503052410 | 58 | 10 | 2.0 | 3.0 | 0.00 | 0.11 | 0.11 | 63 | 1008.9 |
| 20260503052317 | 58 | 10 | 2.0 | 3.0 | 0.00 | 0.11 | 0.11 | 62 | 1008.9 |
| 20260503052246 | 58 | 10 | 2.0 | 3.0 | 0.00 | 0.11 | 0.11 | 62 | 1008.9 |
| 20260503052142 | 58 | 10 | 2.0 | 3.0 | 0.00 | 0.11 | 0.11 | 63 | 1008.9 |
| 20260503052025 | 58 | 10 | 2.0 | 2.0 | 0.00 | 0.11 | 0.11 | 63 | 1008.9 |
| 20260503051926 | 58 | 10 | 1.0 | 2.0 | 0.00 | 0.11 | 0.11 | 63 | 1008.9 |
| 20260503051833 | 58 | 10 | 1.0 | 2.0 | 0.00 | 0.11 | 0.11 | 63 | 1008.9 |
| 20260503051712 | 58 | 10 | 2.0 | 2.0 | 0.00 | 0.11 | 0.11 | 63 | 1008.9 |
| 20260503051608 | 58 | 10 | 2.0 | 2.0 | 0.00 | 0.11 | 0.11 | 63 | 1008.9 |
| 20260503051515 | 58 | 10 | 2.0 | 2.0 | 0.00 | 0.11 | 0.11 | 63 | 1008.9 |
| 20260503051410 | 58 | 10 | 1.0 | 2.0 | 0.00 | 0.11 | 0.11 | 63 | 1008.9 |
| 20260503051316 | 58 | 10 | 1.0 | 2.0 | 0.00 | 0.11 | 0.11 | 63 | 1008.9 |
| 20260503051248 | 58 | 10 | 1.0 | 2.0 | 0.00 | 0.11 | 0.11 | 64 | 1008.9 |
| 20260503051122 | 58 | 10 | 1.0 | 2.0 | 0.00 | 0.11 | 0.11 | 64 | 1008.9 |
| 20260503051020 | 58 | 10 | 0.0 | 2.0 | 0.00 | 0.11 | 0.11 | 64 | 1009.0 |
| 20260503050925 | 58 | 10 | 0.0 | 0.0 | 0.00 | 0.11 | 0.11 | 64 | 1008.9 |
| 20260503050823 | 58 | 10 | 0.0 | 0.0 | 0.00 | 0.11 | 0.11 | 64 | 1008.9 |
| 20260503050729 | 58 | 10 | 0.0 | 0.0 | 0.00 | 0.11 | 0.11 | 64 | 1008.9 |
| 20260503050609 | 58 | 10 | 0.0 | 0.0 | 0.00 | 0.11 | 0.11 | 64 | 1008.9 |
| 20260503050527 | 58 | 10 | 0.0 | 0.0 | 0.00 | 0.11 | 0.11 | 64 | 1008.9 |
| 20260503050432 | 58 | 10 | 0.0 | 0.0 | 0.00 | 0.11 | 0.11 | 64 | 1008.9 |
| 20260503050338 | 58 | 10 | 0.0 | 0.0 | 0.00 | 0.11 | 0.11 | 65 | 1008.9 |
| 20260503050215 | 58 | 10 | 0.0 | 0.0 | 0.00 | 0.11 | 0.11 | 65 | 1008.9 |
| 20260503050111 | 58 | 10 | 0.0 | 0.0 | 0.00 | 0.11 | 0.11 | 66 | 1008.9 |
| 20260503050037 | 58 | 10 | 0.0 | 0.0 | 0.00 | 0.11 | 0.11 | 66 | 1008.9 |
| 20260503045923 | 57 | 10 | 0.0 | 0.0 | 0.00 | 0.11 | 0.11 | 66 | 1008.9 |
| 20260503045840 | 57 | 10 | 0.0 | 0.0 | 0.00 | 0.11 | 0.11 | 66 | 1009.0 |
| 20260503045748 | 57 | 10 | 0.0 | 0.0 | 0.00 | 0.11 | 0.11 | 66 | 1009.0 |
| 20260503045635 | 57 | 10 | 0.0 | 0.0 | 0.00 | 0.11 | 0.11 | 66 | 1009.0 |
| 20260503045507 | 57 | 10 | 0.0 | 0.0 | 0.00 | 0.11 | 0.11 | 67 | 1008.9 |
| 20260503045424 | 57 | 10 | 0.0 | 0.0 | 0.00 | 0.11 | 0.11 | 67 | 1008.9 |
| 20260503045329 | 57 | 10 | 0.0 | 0.0 | 0.00 | 0.11 | 0.11 | 67 | 1008.9 |
| 20260503045225 | 57 | 10 | 0.0 | 0.0 | 0.00 | 0.11 | 0.11 | 68 | 1008.9 |
| 20260503045133 | 57 | 10 | 0.0 | 0.0 | 0.00 | 0.11 | 0.11 | 68 | 1008.9 |
| 20260503045011 | 57 | 10 | 0.0 | 0.0 | 0.00 | 0.11 | 0.11 | 68 | 1008.9 |
| 20260503044908 | 58 | 10 | 0.0 | 0.0 | 0.00 | 0.11 | 0.11 | 68 | 1008.9 |
| 20260503044832 | 58 | 10 | 0.0 | 1.0 | 0.00 | 0.11 | 0.11 | 68 | 1008.9 |
| 20260503044730 | 58 | 10 | 0.0 | 2.0 | 0.00 | 0.11 | 0.11 | 68 | 1008.9 |
| 20260503044614 | 58 | 10 | 0.0 | 2.0 | 0.00 | 0.11 | 0.11 | 68 | 1008.9 |
| 20260503044510 | 58 | 10 | 0.0 | 3.0 | 0.00 | 0.11 | 0.11 | 69 | 1008.9 |
| 20260503044414 | 58 | 10 | 0.0 | 3.0 | 0.00 | 0.11 | 0.11 | 69 | 1008.9 |
| 20260503044315 | 58 | 10 | 0.0 | 3.0 | 0.00 | 0.11 | 0.11 | 69 | 1008.9 |
| 20260503044222 | 58 | 10 | 0.0 | 3.0 | 0.00 | 0.11 | 0.11 | 69 | 1008.9 |
| 20260503044117 | 58 | 10 | 0.0 | 3.0 | 0.00 | 0.11 | 0.11 | 68 | 1008.9 |
| 20260503044015 | 58 | 10 | 1.0 | 3.0 | 0.00 | 0.11 | 0.11 | 68 | 1008.9 |
| 20260503043921 | 58 | 10 | 1.0 | 3.0 | 0.00 | 0.11 | 0.11 | 68 | 1008.9 |
| 20260503043827 | 58 | 10 | 1.0 | 3.0 | 0.00 | 0.11 | 0.11 | 68 | 1008.9 |
| 20260503043708 | 58 | 10 | 2.0 | 3.0 | 0.00 | 0.11 | 0.11 | 69 | 1008.9 |
| 20260503043636 | 58 | 10 | 2.0 | 3.0 | 0.00 | 0.11 | 0.11 | 69 | 1008.9 |
| 20260503043513 | 58 | 10 | 2.0 | 3.0 | 0.00 | 0.11 | 0.11 | 69 | 1008.9 |
| 20260503043409 | 58 | 10 | 2.0 | 3.0 | 0.00 | 0.11 | 0.11 | 68 | 1008.9 |
| 20260503043334 | 58 | 10 | 2.0 | 3.0 | 0.00 | 0.11 | 0.11 | 68 | 1008.9 |
| 20260503043214 | 58 | 10 | 2.0 | 3.0 | 0.00 | 0.11 | 0.11 | 68 | 1008.8 |
| 20260503043109 | 58 | 10 | 2.0 | 3.0 | 0.00 | 0.11 | 0.11 | 68 | 1008.8 |
| 20260503043020 | 58 | 10 | 2.0 | 3.0 | 0.00 | 0.11 | 0.11 | 68 | 1008.8 |
| 20260503042915 | 58 | 10 | 2.0 | 3.0 | 0.00 | 0.11 | 0.11 | 68 | 1008.8 |
| 20260503042812 | 58 | 10 | 1.0 | 3.0 | 0.00 | 0.11 | 0.11 | 68 | 1008.8 |
| 20260503042741 | 58 | 10 | 1.0 | 3.0 | 0.00 | 0.11 | 0.11 | 68 | 1008.8 |
| 20260503042643 | 58 | 10 | 1.0 | 3.0 | 0.00 | 0.11 | 0.11 | 68 | 1008.8 |
| 20260503042520 | 58 | 10 | 1.0 | 3.0 | 0.00 | 0.11 | 0.11 | 68 | 1008.8 |
| 20260503042425 | 59 | 10 | 1.0 | 3.0 | 0.00 | 0.11 | 0.11 | 68 | 1008.8 |
| 20260503042332 | 59 | 10 | 1.0 | 3.0 | 0.00 | 0.11 | 0.11 | 68 | 1008.8 |
| 20260503042215 | 59 | 10 | 1.0 | 3.0 | 0.00 | 0.11 | 0.11 | 68 | 1008.8 |
| 20260503042141 | 59 | 10 | 1.0 | 3.0 | 0.00 | 0.11 | 0.11 | 68 | 1008.8 |
| 20260503042015 | 59 | 10 | 2.0 | 3.0 | 0.00 | 0.11 | 0.11 | 68 | 1008.8 |
| 20260503041941 | 59 | 10 | 2.0 | 3.0 | 0.00 | 0.11 | 0.11 | 68 | 1008.8 |
| 20260503041817 | 59 | 10 | 1.0 | 3.0 | 0.00 | 0.11 | 0.11 | 67 | 1008.8 |
| 20260503041715 | 59 | 10 | 1.0 | 3.0 | 0.00 | 0.11 | 0.11 | 67 | 1008.8 |
| 20260503041620 | 59 | 10 | 1.0 | 3.0 | 0.00 | 0.11 | 0.11 | 67 | 1008.8 |
| 20260503041521 | 59 | 10 | 1.0 | 4.0 | 0.00 | 0.11 | 0.11 | 67 | 1008.7 |
| 20260503041427 | 59 | 10 | 1.0 | 4.0 | 0.00 | 0.11 | 0.11 | 67 | 1008.7 |
| 20260503041331 | 59 | 10 | 1.0 | 4.0 | 0.00 | 0.11 | 0.11 | 67 | 1008.7 |
| 20260503041228 | 59 | 10 | 1.0 | 4.0 | 0.00 | 0.11 | 0.11 | 67 | 1008.8 |
| 20260503041124 | 59 | 10 | 1.0 | 4.0 | 0.00 | 0.11 | 0.11 | 67 | 1008.8 |
| 20260503041030 | 59 | 10 | 1.0 | 4.0 | 0.00 | 0.11 | 0.11 | 67 | 1008.8 |
| 20260503040911 | 59 | 10 | 1.0 | 4.0 | 0.00 | 0.11 | 0.11 | 68 | 1008.7 |
| 20260503040809 | 59 | 10 | 2.0 | 4.0 | 0.00 | 0.11 | 0.11 | 68 | 1008.6 |
| 20260503040717 | 59 | 10 | 2.0 | 4.0 | 0.00 | 0.11 | 0.11 | 69 | 1008.7 |
| 20260503040612 | 59 | 10 | 2.0 | 3.0 | 0.00 | 0.11 | 0.11 | 69 | 1008.7 |
| 20260503040516 | 59 | 10 | 1.0 | 4.0 | 0.00 | 0.11 | 0.11 | 68 | 1008.7 |
| 20260503040414 | 59 | 10 | 1.0 | 4.0 | 0.00 | 0.11 | 0.11 | 68 | 1008.6 |
| 20260503040318 | 59 | 10 | 1.0 | 4.0 | 0.00 | 0.11 | 0.11 | 68 | 1008.7 |
| 20260503040218 | 59 | 10 | 2.0 | 4.0 | 0.00 | 0.11 | 0.11 | 67 | 1008.7 |
| 20260503040127 | 59 | 10 | 2.0 | 4.0 | 0.00 | 0.11 | 0.11 | 67 | 1008.7 |
| 20260503040025 | 59 | 10 | 2.0 | 4.0 | 0.00 | 0.11 | 0.11 | 66 | 1008.7 |
| 20260503035932 | 59 | 10 | 2.0 | 4.0 | 0.00 | 0.11 | 0.11 | 66 | 1008.7 |
| 20260503035809 | 59 | 10 | 3.0 | 4.0 | 0.00 | 0.11 | 0.11 | 65 | 1008.6 |
| 20260503035716 | 59 | 10 | 3.0 | 4.0 | 0.00 | 0.11 | 0.11 | 65 | 1008.7 |
| 20260503035610 | 59 | 10 | 3.0 | 4.0 | 0.00 | 0.11 | 0.11 | 65 | 1008.7 |
| 20260503035512 | 59 | 10 | 2.0 | 4.0 | 0.00 | 0.11 | 0.11 | 65 | 1008.6 |
| 20260503035418 | 59 | 19 | 2.0 | 3.0 | 0.00 | 0.11 | 0.11 | 65 | 1008.6 |
| 20260503035316 | 59 | 19 | 2.0 | 3.0 | 0.00 | 0.11 | 0.11 | 65 | 1008.6 |
| 20260503035224 | 59 | 19 | 2.0 | 3.0 | 0.00 | 0.11 | 0.11 | 65 | 1008.6 |
| 20260503035119 | 59 | 19 | 2.0 | 3.0 | 0.00 | 0.11 | 0.11 | 64 | 1008.6 |
| 20260503035023 | 59 | 19 | 1.0 | 2.0 | 0.00 | 0.11 | 0.11 | 64 | 1008.6 |
| 20260503034921 | 59 | 19 | 1.0 | 2.0 | 0.00 | 0.11 | 0.11 | 65 | 1008.6 |
| 20260503034832 | 59 | 19 | 1.0 | 2.0 | 0.00 | 0.11 | 0.11 | 65 | 1008.6 |
| 20260503034727 | 59 | 19 | 1.0 | 2.0 | 0.00 | 0.11 | 0.11 | 65 | 1008.6 |
| 20260503034610 | 60 | 19 | 1.0 | 2.0 | 0.00 | 0.11 | 0.11 | 65 | 1008.6 |
| 20260503034535 | 60 | 19 | 1.0 | 2.0 | 0.00 | 0.11 | 0.11 | 66 | 1008.6 |
| 20260503034412 | 60 | 19 | 1.0 | 2.0 | 0.00 | 0.11 | 0.11 | 66 | 1008.6 |
| 20260503034309 | 60 | 19 | 1.0 | 3.0 | 0.00 | 0.11 | 0.11 | 66 | 1008.6 |
| 20260503034238 | 60 | 19 | 1.0 | 3.0 | 0.00 | 0.11 | 0.11 | 66 | 1008.6 |
| 20260503034112 | 60 | 19 | 1.0 | 3.0 | 0.00 | 0.11 | 0.11 | 65 | 1008.6 |
| 20260503034023 | 60 | 19 | 0.0 | 3.0 | 0.00 | 0.11 | 0.11 | 65 | 1008.6 |
| 20260503033921 | 60 | 19 | 1.0 | 3.0 | 0.00 | 0.11 | 0.11 | 65 | 1008.7 |
| 20260503033848 | 60 | 19 | 1.0 | 3.0 | 0.00 | 0.11 | 0.11 | 66 | 1008.7 |
| 20260503033724 | 60 | 19 | 1.0 | 3.0 | 0.00 | 0.11 | 0.11 | 66 | 1008.6 |
| 20260503033631 | 60 | 19 | 1.0 | 3.0 | 0.00 | 0.11 | 0.11 | 66 | 1008.6 |
| 20260503033524 | 60 | 19 | 2.0 | 3.0 | 0.00 | 0.11 | 0.11 | 66 | 1008.6 |
| 20260503033449 | 60 | 19 | 2.0 | 3.0 | 0.00 | 0.11 | 0.11 | 65 | 1008.6 |
| 20260503033327 | 60 | 19 | 2.0 | 5.0 | 0.00 | 0.11 | 0.11 | 65 | 1008.6 |
| 20260503033236 | 60 | 19 | 2.0 | 6.0 | 0.00 | 0.11 | 0.11 | 65 | 1008.6 |
| 20260503033109 | 60 | 19 | 2.0 | 6.0 | 0.00 | 0.11 | 0.11 | 65 | 1008.6 |
| 20260503033008 | 60 | 19 | 2.0 | 6.0 | 0.00 | 0.11 | 0.11 | 65 | 1008.5 |
| 20260503032915 | 60 | 19 | 2.0 | 6.0 | 0.00 | 0.11 | 0.11 | 65 | 1008.5 |
| 20260503032831 | 60 | 19 | 1.0 | 9.0 | 0.00 | 0.11 | 0.11 | 65 | 1008.5 |
| 20260503032717 | 60 | 19 | 2.0 | 9.0 | 0.00 | 0.11 | 0.11 | 65 | 1008.5 |
| 20260503032617 | 60 | 19 | 2.0 | 9.0 | 0.00 | 0.11 | 0.11 | 64 | 1008.5 |
| 20260503032523 | 60 | 19 | 3.0 | 9.0 | 0.00 | 0.11 | 0.11 | 65 | 1008.4 |
| 20260503032450 | 60 | 32 | 3.0 | 9.0 | 0.00 | 0.11 | 0.11 | 65 | 1008.4 |
| 20260503032326 | 60 | 21 | 3.0 | 9.0 | 0.00 | 0.11 | 0.11 | 65 | 1008.4 |
| 20260503032235 | 60 | 21 | 3.0 | 9.0 | 0.00 | 0.11 | 0.11 | 65 | 1008.4 |
| 20260503032111 | 60 | 15 | 4.0 | 9.0 | 0.00 | 0.11 | 0.11 | 65 | 1008.3 |
| 20260503032007 | 60 | 19 | 5.0 | 9.0 | 0.00 | 0.11 | 0.11 | 65 | 1008.3 |
| 20260503031919 | 60 | 31 | 5.0 | 9.0 | 0.00 | 0.11 | 0.11 | 66 | 1008.3 |
| 20260503031814 | 60 | 19 | 3.0 | 5.0 | 0.00 | 0.11 | 0.11 | 66 | 1008.3 |
| 20260503031712 | 60 | 20 | 3.0 | 5.0 | 0.00 | 0.11 | 0.11 | 66 | 1008.3 |
| 20260503031617 | 60 | 1 | 3.0 | 5.0 | 0.00 | 0.11 | 0.11 | 66 | 1008.3 |
| 20260503031545 | 60 | 360 | 3.0 | 5.0 | 0.00 | 0.11 | 0.11 | 66 | 1008.3 |
| 20260503031418 | 60 | 358 | 3.0 | 5.0 | 0.00 | 0.11 | 0.11 | 66 | 1008.3 |
| 20260503031314 | 60 | 350 | 3.0 | 5.0 | 0.00 | 0.11 | 0.11 | 66 | 1008.3 |
| 20260503031225 | 60 | 350 | 3.0 | 5.0 | 0.00 | 0.11 | 0.11 | 66 | 1008.3 |
| 20260503031154 | 60 | 352 | 3.0 | 5.0 | 0.00 | 0.11 | 0.11 | 65 | 1008.3 |
| 20260503031007 | 60 | 15 | 3.0 | 5.0 | 0.00 | 0.11 | 0.11 | 66 | 1008.3 |
| 20260503030925 | 60 | 15 | 2.0 | 5.0 | 0.00 | 0.11 | 0.11 | 66 | 1008.3 |
| 20260503030831 | 60 | 5 | 1.0 | 5.0 | 0.00 | 0.11 | 0.11 | 66 | 1008.3 |
| 20260503030758 | 60 | 15 | 0.0 | 2.0 | 0.00 | 0.11 | 0.11 | 66 | 1008.3 |
| 20260503030611 | 60 | 15 | 0.0 | 3.0 | 0.00 | 0.11 | 0.11 | 66 | 1008.3 |
| 20260503030512 | 60 | 15 | 0.0 | 3.0 | 0.00 | 0.11 | 0.11 | 66 | 1008.3 |
| 20260503030409 | 60 | 15 | 1.0 | 3.0 | 0.00 | 0.11 | 0.11 | 65 | 1008.3 |
| 20260503030335 | 60 | 15 | 1.0 | 3.0 | 0.00 | 0.11 | 0.11 | 65 | 1008.3 |
| 20260503030222 | 60 | 15 | 1.0 | 3.0 | 0.00 | 0.11 | 0.11 | 66 | 1008.3 |
| 20260503030116 | 60 | 15 | 1.0 | 4.0 | 0.00 | 0.11 | 0.11 | 66 | 1008.3 |
| 20260503030043 | 60 | 15 | 1.0 | 4.0 | 0.00 | 0.11 | 0.11 | 65 | 1008.3 |
| 20260503025918 | 60 | 15 | 1.0 | 5.0 | 0.00 | 0.11 | 0.11 | 66 | 1008.3 |
| 20260503025829 | 60 | 15 | 2.0 | 5.0 | 0.00 | 0.11 | 0.11 | 66 | 1008.3 |
| 20260503025724 | 60 | 15 | 2.0 | 5.0 | 0.00 | 0.11 | 0.11 | 65 | 1008.3 |
| 20260503025621 | 60 | 15 | 2.0 | 6.0 | 0.00 | 0.11 | 0.11 | 65 | 1008.3 |
| 20260503025547 | 60 | 15 | 2.0 | 6.0 | 0.00 | 0.11 | 0.11 | 66 | 1008.2 |
| 20260503025433 | 61 | 15 | 2.0 | 6.0 | 0.00 | 0.11 | 0.11 | 66 | 1008.2 |
| 20260503025311 | 61 | 15 | 3.0 | 6.0 | 0.00 | 0.11 | 0.11 | 65 | 1008.2 |
| 20260503025220 | 61 | 15 | 3.0 | 6.0 | 0.00 | 0.11 | 0.11 | 65 | 1008.3 |
| 20260503025118 | 61 | 10 | 3.0 | 6.0 | 0.00 | 0.11 | 0.11 | 65 | 1008.2 |
| 20260503025045 | 61 | 10 | 3.0 | 9.0 | 0.00 | 0.11 | 0.11 | 65 | 1008.1 |
| 20260503024921 | 61 | 15 | 4.0 | 9.0 | 0.00 | 0.11 | 0.11 | 65 | 1008.1 |
| 20260503024829 | 61 | 15 | 4.0 | 9.0 | 0.00 | 0.11 | 0.11 | 65 | 1008.1 |
| 20260503024727 | 61 | 22 | 4.0 | 9.0 | 0.00 | 0.11 | 0.11 | 65 | 1008.1 |
| 20260503024623 | 61 | 15 | 4.0 | 9.0 | 0.00 | 0.11 | 0.11 | 65 | 1008.1 |
| 20260503024529 | 61 | 15 | 4.0 | 9.0 | 0.00 | 0.11 | 0.11 | 65 | 1008.1 |
| 20260503024409 | 61 | 15 | 5.0 | 13.0 | 0.00 | 0.11 | 0.11 | 64 | 1008.2 |
| 20260503024313 | 61 | 5 | 6.0 | 13.0 | 0.00 | 0.11 | 0.11 | 64 | 1008.2 |
| 20260503024232 | 61 | 5 | 6.0 | 13.0 | 0.00 | 0.11 | 0.11 | 64 | 1008.2 |
| 20260503024133 | 61 | 356 | 5.0 | 13.0 | 0.00 | 0.11 | 0.11 | 64 | 1008.1 |
| 20260503024018 | 61 | 15 | 5.0 | 13.0 | 0.00 | 0.11 | 0.11 | 64 | 1008.0 |
| 20260503023936 | 61 | 19 | 5.0 | 13.0 | 0.00 | 0.11 | 0.11 | 64 | 1008.1 |
| 20260503023821 | 61 | 10 | 6.0 | 13.0 | 0.00 | 0.11 | 0.11 | 64 | 1008.0 |
| 20260503023717 | 61 | 5 | 7.0 | 13.0 | 0.00 | 0.11 | 0.11 | 64 | 1007.9 |
| 20260503023630 | 61 | 25 | 7.0 | 13.0 | 0.00 | 0.11 | 0.11 | 64 | 1007.9 |
| 20260503023545 | 61 | 327 | 6.0 | 10.0 | 0.00 | 0.11 | 0.11 | 64 | 1007.9 |
| 20260503023430 | 61 | 15 | 6.0 | 10.0 | 0.00 | 0.11 | 0.11 | 64 | 1007.9 |
| 20260503023308 | 61 | 23 | 6.0 | 10.0 | 0.00 | 0.11 | 0.11 | 64 | 1007.9 |
| 20260503023236 | 61 | 10 | 6.0 | 10.0 | 0.00 | 0.11 | 0.11 | 64 | 1007.9 |
| 20260503023111 | 61 | 32 | 6.0 | 10.0 | 0.00 | 0.11 | 0.11 | 64 | 1007.9 |
| 20260503023009 | 61 | 15 | 6.0 | 10.0 | 0.00 | 0.11 | 0.11 | 64 | 1007.9 |
| 20260503022918 | 61 | 27 | 6.0 | 11.0 | 0.00 | 0.11 | 0.11 | 64 | 1007.9 |
| 20260503022815 | 61 | 34 | 5.0 | 11.0 | 0.00 | 0.11 | 0.11 | 64 | 1007.9 |
| 20260503022723 | 61 | 15 | 6.0 | 12.0 | 0.00 | 0.11 | 0.11 | 64 | 1007.9 |
| 20260503022618 | 61 | 36 | 5.0 | 12.0 | 0.00 | 0.11 | 0.11 | 64 | 1008.0 |
| 20260503022516 | 61 | 25 | 5.0 | 12.0 | 0.00 | 0.11 | 0.11 | 64 | 1008.0 |
| 20260503022422 | 61 | 5 | 6.0 | 12.0 | 0.00 | 0.11 | 0.11 | 64 | 1008.0 |
| 20260503022319 | 61 | 15 | 6.0 | 12.0 | 0.00 | 0.11 | 0.11 | 64 | 1007.9 |
| 20260503022230 | 61 | 23 | 7.0 | 12.0 | 0.00 | 0.11 | 0.11 | 64 | 1007.9 |
| 20260503022134 | 61 | 26 | 7.0 | 13.0 | 0.00 | 0.11 | 0.11 | 64 | 1007.9 |
| 20260503022009 | 61 | 65 | 7.0 | 13.0 | 0.00 | 0.11 | 0.11 | 64 | 1007.9 |
| 20260503021916 | 61 | 5 | 7.0 | 13.0 | 0.00 | 0.11 | 0.11 | 64 | 1007.8 |
| 20260503021814 | 61 | 23 | 7.0 | 13.0 | 0.00 | 0.11 | 0.11 | 64 | 1007.8 |
| 20260503021720 | 61 | 10 | 7.0 | 13.0 | 0.00 | 0.11 | 0.11 | 64 | 1007.8 |
| 20260503021615 | 61 | 34 | 6.0 | 13.0 | 0.00 | 0.11 | 0.11 | 65 | 1007.7 |
| 20260503021521 | 61 | 15 | 4.0 | 13.0 | 0.00 | 0.11 | 0.11 | 65 | 1007.8 |
| 20260503021422 | 61 | 23 | 6.0 | 13.0 | 0.00 | 0.11 | 0.11 | 65 | 1007.8 |
| 20260503021320 | 61 | 358 | 7.0 | 13.0 | 0.00 | 0.11 | 0.11 | 65 | 1007.7 |
| 20260503021219 | 60 | 15 | 8.0 | 13.0 | 0.00 | 0.11 | 0.11 | 65 | 1007.7 |
| 20260503021113 | 60 | 45 | 9.0 | 13.0 | 0.00 | 0.11 | 0.11 | 65 | 1007.7 |
| 20260503021040 | 60 | 29 | 9.0 | 13.0 | 0.00 | 0.11 | 0.11 | 65 | 1007.6 |
| 20260503020924 | 60 | 5 | 9.0 | 13.0 | 0.00 | 0.11 | 0.11 | 65 | 1007.7 |
| 20260503020841 | 60 | 38 | 9.0 | 13.0 | 0.00 | 0.11 | 0.11 | 65 | 1007.7 |
| 20260503020714 | 60 | 5 | 9.0 | 13.0 | 0.00 | 0.11 | 0.11 | 66 | 1007.6 |
| 20260503020608 | 60 | 5 | 8.0 | 13.0 | 0.00 | 0.11 | 0.11 | 66 | 1007.6 |
| 20260503020535 | 60 | 340 | 7.0 | 13.0 | 0.00 | 0.11 | 0.11 | 66 | 1007.6 |
| 20260503020412 | 60 | 15 | 7.0 | 16.0 | 0.00 | 0.11 | 0.11 | 66 | 1007.6 |
| 20260503020308 | 60 | 5 | 8.0 | 16.0 | 0.00 | 0.11 | 0.11 | 66 | 1007.6 |
| 20260503020227 | 60 | 29 | 8.0 | 16.0 | 0.00 | 0.11 | 0.11 | 66 | 1007.6 |
| 20260503020134 | 60 | 20 | 8.0 | 16.0 | 0.00 | 0.11 | 0.11 | 66 | 1007.6 |
| 20260503020015 | 60 | 10 | 8.0 | 16.0 | 0.01 | 0.11 | 0.11 | 66 | 1007.6 |
| 20260503015932 | 60 | 15 | 7.0 | 16.0 | 0.01 | 0.11 | 0.11 | 67 | 1007.6 |
| 20260503015816 | 60 | 341 | 8.0 | 16.0 | 0.02 | 0.11 | 0.11 | 67 | 1007.5 |
| 20260503015744 | 60 | 23 | 9.0 | 16.0 | 0.03 | 0.11 | 0.11 | 67 | 1007.6 |
| 20260503015619 | 60 | 10 | 9.0 | 14.0 | 0.04 | 0.11 | 0.11 | 67 | 1007.5 |
| 20260503015526 | 60 | 24 | 10.0 | 14.0 | 0.04 | 0.11 | 0.11 | 67 | 1007.5 |
| 20260503015424 | 59 | 27 | 9.0 | 14.0 | 0.06 | 0.11 | 0.11 | 68 | 1007.5 |
| 20260503015331 | 59 | 27 | 7.0 | 14.0 | 0.06 | 0.11 | 0.11 | 68 | 1007.5 |
| 20260503015213 | 59 | 356 | 8.0 | 14.0 | 0.06 | 0.11 | 0.11 | 68 | 1007.5 |
| 20260503015109 | 59 | 42 | 7.0 | 14.0 | 0.07 | 0.11 | 0.11 | 69 | 1007.5 |
| 20260503015013 | 59 | 342 | 7.0 | 14.0 | 0.07 | 0.11 | 0.11 | 69 | 1007.5 |
| 20260503014910 | 59 | 32 | 9.0 | 14.0 | 0.07 | 0.11 | 0.11 | 70 | 1007.5 |
| 20260503014808 | 59 | 10 | 8.0 | 14.0 | 0.07 | 0.11 | 0.11 | 70 | 1007.5 |
| 20260503014715 | 59 | 28 | 7.0 | 13.0 | 0.07 | 0.11 | 0.11 | 70 | 1007.5 |
| 20260503014641 | 59 | 36 | 8.0 | 13.0 | 0.07 | 0.11 | 0.11 | 70 | 1007.5 |
| 20260503014518 | 59 | 30 | 7.0 | 13.0 | 0.08 | 0.11 | 0.11 | 71 | 1007.4 |
| 20260503014416 | 59 | 19 | 6.0 | 13.0 | 0.09 | 0.11 | 0.11 | 72 | 1007.5 |
| 20260503014321 | 59 | 5 | 7.0 | 13.0 | 0.09 | 0.11 | 0.11 | 72 | 1007.4 |
| 20260503014219 | 59 | 5 | 7.0 | 15.0 | 0.10 | 0.11 | 0.11 | 72 | 1007.4 |
| 20260503014122 | 59 | 357 | 7.0 | 15.0 | 0.10 | 0.11 | 0.11 | 72 | 1007.4 |
| 20260503014020 | 59 | 343 | 6.0 | 15.0 | 0.11 | 0.11 | 0.11 | 72 | 1007.5 |
| 20260503013910 | 58 | 358 | 6.0 | 15.0 | 0.11 | 0.11 | 0.11 | 72 | 1007.5 |
| 20260503013826 | 58 | 22 | 7.0 | 17.0 | 0.11 | 0.11 | 0.11 | 72 | 1007.4 |
| 20260503013734 | 58 | 25 | 8.0 | 17.0 | 0.11 | 0.11 | 0.11 | 72 | 1007.4 |
| 20260503013648 | 58 | 360 | 8.0 | 17.0 | 0.11 | 0.11 | 0.11 | 73 | 1007.4 |
| 20260503013512 | 58 | 348 | 8.0 | 17.0 | 0.11 | 0.11 | 0.11 | 73 | 1007.4 |
| 20260503013410 | 58 | 333 | 10.0 | 17.0 | 0.11 | 0.11 | 0.11 | 73 | 1007.5 |
| 20260503013335 | 58 | 360 | 11.0 | 17.0 | 0.11 | 0.11 | 0.11 | 74 | 1007.5 |
| 20260503013218 | 58 | 5 | 10.0 | 17.0 | 0.11 | 0.11 | 0.11 | 74 | 1007.4 |
| 20260503013114 | 58 | 39 | 10.0 | 17.0 | 0.11 | 0.11 | 0.11 | 74 | 1007.5 |
| 20260503013020 | 58 | 348 | 11.0 | 17.0 | 0.11 | 0.11 | 0.11 | 75 | 1007.6 |
| 20260503012917 | 58 | 5 | 9.0 | 20.0 | 0.11 | 0.11 | 0.11 | 75 | 1007.5 |
| 20260503012822 | 58 | 24 | 8.0 | 20.0 | 0.11 | 0.11 | 0.11 | 75 | 1007.5 |
| 20260503012721 | 58 | 15 | 8.0 | 20.0 | 0.11 | 0.11 | 0.11 | 75 | 1007.6 |
| 20260503012626 | 58 | 358 | 8.0 | 20.0 | 0.11 | 0.11 | 0.11 | 74 | 1007.6 |
| 20260503012546 | 58 | 34 | 7.0 | 20.0 | 0.11 | 0.11 | 0.11 | 74 | 1007.6 |
| 20260503012430 | 58 | 353 | 7.0 | 20.0 | 0.11 | 0.11 | 0.11 | 73 | 1007.6 |
| 20260503012307 | 58 | 21 | 9.0 | 20.0 | 0.11 | 0.11 | 0.11 | 73 | 1007.7 |
| 20260503012235 | 58 | 29 | 11.0 | 20.0 | 0.11 | 0.11 | 0.11 | 73 | 1007.7 |
| 20260503012108 | 58 | 360 | 14.0 | 20.0 | 0.11 | 0.11 | 0.11 | 74 | 1007.8 |
| 20260503012033 | 58 | 358 | 14.0 | 20.0 | 0.11 | 0.11 | 0.11 | 74 | 1007.8 |
| 20260503011908 | 58 | 44 | 14.0 | 20.0 | 0.11 | 0.11 | 0.11 | 74 | 1007.8 |
| 20260503011834 | 58 | 348 | 12.0 | 19.0 | 0.11 | 0.11 | 0.11 | 74 | 1007.7 |
| 20260503011715 | 58 | 15 | 12.0 | 19.0 | 0.11 | 0.11 | 0.11 | 75 | 1007.8 |
| 20260503011619 | 58 | 334 | 13.0 | 21.0 | 0.11 | 0.11 | 0.11 | 75 | 1007.8 |
| 20260503011515 | 58 | 340 | 13.0 | 21.0 | 0.11 | 0.11 | 0.11 | 75 | 1007.8 |
| 20260503011421 | 59 | 32 | 12.0 | 21.0 | 0.11 | 0.11 | 0.11 | 75 | 1007.9 |
| 20260503011318 | 59 | 49 | 11.0 | 21.0 | 0.11 | 0.11 | 0.11 | 74 | 1007.9 |
| 20260503011244 | 59 | 348 | 10.0 | 21.0 | 0.11 | 0.11 | 0.11 | 74 | 1007.8 |
| 20260503011117 | 59 | 5 | 8.0 | 21.0 | 0.11 | 0.11 | 0.11 | 74 | 1007.8 |
| 20260503011027 | 59 | 337 | 9.0 | 21.0 | 0.11 | 0.11 | 0.11 | 74 | 1007.8 |
| 20260503010943 | 59 | 5 | 11.0 | 21.0 | 0.11 | 0.11 | 0.11 | 73 | 1007.6 |
| 20260503010829 | 60 | 352 | 12.0 | 21.0 | 0.11 | 0.11 | 0.11 | 73 | 1007.6 |
| 20260503010737 | 60 | 352 | 12.0 | 19.0 | 0.11 | 0.11 | 0.11 | 73 | 1007.6 |
| 20260503010613 | 60 | 350 | 10.0 | 19.0 | 0.11 | 0.11 | 0.11 | 72 | 1007.7 |
| 20260503010529 | 60 | 360 | 12.0 | 18.0 | 0.11 | 0.11 | 0.11 | 71 | 1007.8 |
| 20260503010415 | 61 | 15 | 13.0 | 18.0 | 0.11 | 0.11 | 0.11 | 71 | 1007.8 |
| 20260503010317 | 61 | 5 | 13.0 | 18.0 | 0.11 | 0.11 | 0.11 | 71 | 1007.9 |
| 20260503010221 | 61 | 327 | 11.0 | 18.0 | 0.11 | 0.11 | 0.11 | 70 | 1008.1 |
| 20260503010144 | 62 | 21 | 10.0 | 18.0 | 0.11 | 0.11 | 0.11 | 71 | 1008.2 |
| 20260503010020 | 62 | 66 | 9.0 | 18.0 | 0.10 | 0.10 | 0.10 | 71 | 1008.6 |
| 20260503005926 | 63 | 57 | 7.0 | 18.0 | 0.10 | 0.10 | 0.10 | 71 | 1008.9 |
| 20260503005824 | 63 | 56 | 5.0 | 13.0 | 0.09 | 0.09 | 0.09 | 70 | 1009.1 |
| 20260503005721 | 63 | 86 | 6.0 | 13.0 | 0.08 | 0.08 | 0.08 | 69 | 1009.3 |
| 20260503005609 | 63 | 100 | 7.0 | 13.0 | 0.07 | 0.07 | 0.07 | 69 | 1009.4 |
| 20260503005507 | 63 | 92 | 7.0 | 16.0 | 0.06 | 0.06 | 0.06 | 67 | 1009.4 |
| 20260503005433 | 64 | 68 | 7.0 | 16.0 | 0.05 | 0.05 | 0.05 | 66 | 1009.4 |
| 20260503005308 | 64 | 127 | 8.0 | 16.0 | 0.05 | 0.05 | 0.05 | 65 | 1009.3 |
| 20260503005216 | 64 | 101 | 7.0 | 16.0 | 0.05 | 0.05 | 0.05 | 65 | 1009.3 |
| 20260503005130 | 65 | 144 | 7.0 | 16.0 | 0.04 | 0.04 | 0.04 | 64 | 1009.3 |
| 20260503005055 | 65 | 122 | 5.0 | 15.0 | 0.04 | 0.04 | 0.04 | 63 | 1009.3 |
| 20260503005000 | 65 | 104 | 5.0 | 15.0 | 0.04 | 0.04 | 0.04 | 62 | 1009.3 |
| 20260503004815 | 65 | 119 | 7.0 | 15.0 | 0.04 | 0.04 | 0.04 | 61 | 1009.0 |
| 20260503004744 | 66 | 165 | 8.0 | 18.0 | 0.04 | 0.04 | 0.04 | 60 | 1009.1 |
| 20260503004618 | 66 | 169 | 7.0 | 18.0 | 0.04 | 0.04 | 0.04 | 59 | 1008.9 |
| 20260503004522 | 66 | 201 | 5.0 | 18.0 | 0.03 | 0.03 | 0.03 | 58 | 1008.9 |
| 20260503004420 | 67 | 187 | 7.0 | 18.0 | 0.02 | 0.02 | 0.02 | 56 | 1008.7 |
| 20260503004327 | 67 | 229 | 9.0 | 18.0 | 0.02 | 0.02 | 0.02 | 55 | 1008.6 |
| 20260503004225 | 67 | 241 | 11.0 | 18.0 | 0.01 | 0.01 | 0.01 | 54 | 1008.5 |
| 20260503004120 | 67 | 225 | 11.0 | 18.0 | 0.00 | 0.00 | 0.00 | 52 | 1008.4 |
| 20260503004011 | 67 | 225 | 11.0 | 18.0 | 0.00 | 0.00 | 0.00 | 51 | 1008.3 |
| 20260503003909 | 68 | 217 | 9.0 | 17.0 | 0.00 | 0.00 | 0.00 | 50 | 1008.2 |
| 20260503003834 | 68 | 206 | 7.0 | 14.0 | 0.00 | 0.00 | 0.00 | 52 | 1008.2 |
| 20260503003711 | 68 | 210 | 5.0 | 14.0 | 0.00 | 0.00 | 0.00 | 52 | 1008.2 |
| 20260503003636 | 68 | 212 | 7.0 | 14.0 | 0.00 | 0.00 | 0.00 | 50 | 1008.1 |
| 20260503003511 | 69 | 259 | 7.0 | 19.0 | 0.00 | 0.00 | 0.00 | 48 | 1008.1 |
| 20260503003416 | 69 | 263 | 6.0 | 19.0 | 0.00 | 0.00 | 0.00 | 47 | 1008.1 |
| 20260503003327 | 69 | 269 | 9.0 | 19.0 | 0.00 | 0.00 | 0.00 | 45 | 1008.1 |
| 20260503003226 | 69 | 251 | 8.0 | 19.0 | 0.00 | 0.00 | 0.00 | 44 | 1008.0 |
| 20260503003121 | 69 | 243 | 9.0 | 19.0 | 0.00 | 0.00 | 0.00 | 42 | 1008.1 |
| 20260503003026 | 69 | 276 | 11.0 | 19.0 | 0.00 | 0.00 | 0.00 | 40 | 1008.1 |
| 20260503002932 | 70 | 269 | 10.0 | 19.0 | 0.00 | 0.00 | 0.00 | 39 | 1008.1 |
| 20260503002827 | 70 | 276 | 12.0 | 19.0 | 0.00 | 0.00 | 0.00 | 39 | 1007.9 |
| 20260503002733 | 70 | 306 | 13.0 | 19.0 | 0.00 | 0.00 | 0.00 | 39 | 1007.9 |
| 20260503002608 | 71 | 272 | 11.0 | 19.0 | 0.00 | 0.00 | 0.00 | 38 | 1008.0 |
| 20260503002516 | 71 | 271 | 8.0 | 19.0 | 0.00 | 0.00 | 0.00 | 38 | 1008.0 |
| 20260503002413 | 71 | 273 | 9.0 | 19.0 | 0.00 | 0.00 | 0.00 | 37 | 1008.0 |
| 20260503002309 | 71 | 258 | 9.0 | 19.0 | 0.00 | 0.00 | 0.00 | 37 | 1008.0 |
| 20260503002218 | 72 | 291 | 9.0 | 19.0 | 0.00 | 0.00 | 0.00 | 36 | 1008.0 |
| 20260503002121 | 72 | 267 | 11.0 | 19.0 | 0.00 | 0.00 | 0.00 | 36 | 1008.0 |
| 20260503002017 | 72 | 283 | 11.0 | 19.0 | 0.00 | 0.00 | 0.00 | 35 | 1008.0 |
| 20260503001924 | 73 | 284 | 11.0 | 19.0 | 0.00 | 0.00 | 0.00 | 34 | 1007.9 |
| 20260503001825 | 73 | 251 | 12.0 | 19.0 | 0.00 | 0.00 | 0.00 | 34 | 1007.9 |
| 20260503001733 | 73 | 269 | 12.0 | 19.0 | 0.00 | 0.00 | 0.00 | 33 | 1007.9 |
| 20260503001629 | 74 | 229 | 13.0 | 17.0 | 0.00 | 0.00 | 0.00 | 32 | 1007.9 |
| 20260503001535 | 74 | 254 | 14.0 | 17.0 | 0.00 | 0.00 | 0.00 | 31 | 1007.9 |
| 20260503001411 | 74 | 254 | 10.0 | 17.0 | 0.00 | 0.00 | 0.00 | 30 | 1007.9 |
| 20260503001309 | 75 | 253 | 7.0 | 11.0 | 0.00 | 0.00 | 0.00 | 29 | 1007.8 |
| 20260503001216 | 75 | 237 | 6.0 | 11.0 | 0.00 | 0.00 | 0.00 | 29 | 1007.7 |
| 20260503001140 | 75 | 237 | 3.0 | 11.0 | 0.00 | 0.00 | 0.00 | 29 | 1007.5 |
| 20260503001020 | 75 | 264 | 1.0 | 12.0 | 0.00 | 0.00 | 0.00 | 29 | 1007.4 |
| 20260503000927 | 75 | 345 | 0.0 | 12.0 | 0.00 | 0.00 | 0.00 | 29 | 1007.4 |
| 20260503000824 | 75 | 345 | 1.0 | 12.0 | 0.00 | 0.00 | 0.00 | 29 | 1007.2 |
| 20260503000733 | 75 | 345 | 2.0 | 12.0 | 0.00 | 0.00 | 0.00 | 29 | 1007.2 |
| 20260503000609 | 75 | 345 | 6.0 | 15.0 | 0.00 | 0.00 | 0.00 | 29 | 1007.0 |
| 20260503000525 | 75 | 341 | 6.0 | 15.0 | 0.00 | 0.00 | 0.00 | 29 | 1007.0 |
| 20260503000437 | 75 | 353 | 7.0 | 15.0 | 0.00 | 0.00 | 0.00 | 29 | 1007.0 |
| 20260503000314 | 75 | 15 | 8.0 | 15.0 | 0.00 | 0.00 | 0.00 | 29 | 1006.9 |
| 20260503000241 | 75 | 37 | 7.0 | 15.0 | 0.00 | 0.00 | 0.00 | 29 | 1006.8 |
| 20260503000116 | 75 | 35 | 5.0 | 15.0 | 0.00 | 0.00 | 0.00 | 29 | 1006.8 |
| 20260503000044 | 75 | 354 | 4.0 | 15.0 | 0.00 | 0.00 | 0.00 | 29 | 1006.8 |
| 20260502235949 | 75 | 5 | 5.0 | 15.0 | 0.00 | 0.00 | 0.00 | 29 | 1006.8 |
| 20260502235824 | 75 | 353 | 9.0 | 15.0 | 0.00 | 0.00 | 0.00 | 29 | 1006.8 |
| 20260502235722 | 75 | 15 | 9.0 | 15.0 | 0.00 | 0.00 | 0.00 | 29 | 1006.7 |
| 20260502235633 | 75 | 358 | 8.0 | 15.0 | 0.00 | 0.00 | 0.00 | 29 | 1006.7 |
| 20260502235509 | 75 | 359 | 7.0 | 15.0 | 0.00 | 0.00 | 0.00 | 28 | 1006.7 |
| 20260502235407 | 76 | 5 | 6.0 | 15.0 | 0.00 | 0.00 | 0.00 | 29 | 1006.7 |
| 20260502235314 | 76 | 354 | 6.0 | 15.0 | 0.00 | 0.00 | 0.00 | 29 | 1006.7 |
| 20260502235213 | 76 | 29 | 6.0 | 15.0 | 0.00 | 0.00 | 0.00 | 29 | 1006.6 |
| 20260502235108 | 76 | 34 | 5.0 | 17.0 | 0.00 | 0.00 | 0.00 | 28 | 1006.7 |
| 20260502235017 | 76 | 27 | 4.0 | 17.0 | 0.00 | 0.00 | 0.00 | 29 | 1006.6 |
| 20260502234913 | 76 | 29 | 6.0 | 17.0 | 0.00 | 0.00 | 0.00 | 28 | 1006.6 |
| 20260502234819 | 76 | 329 | 7.0 | 17.0 | 0.00 | 0.00 | 0.00 | 28 | 1006.6 |
| 20260502234718 | 76 | 29 | 7.0 | 17.0 | 0.00 | 0.00 | 0.00 | 29 | 1006.5 |
| 20260502234622 | 76 | 44 | 8.0 | 17.0 | 0.00 | 0.00 | 0.00 | 28 | 1006.6 |
| 20260502234519 | 76 | 48 | 8.0 | 17.0 | 0.00 | 0.00 | 0.00 | 28 | 1006.5 |
| 20260502234445 | 76 | 15 | 8.0 | 17.0 | 0.00 | 0.00 | 0.00 | 28 | 1006.5 |
| 20260502234325 | 76 | 31 | 8.0 | 17.0 | 0.00 | 0.00 | 0.00 | 28 | 1006.5 |
| 20260502234232 | 76 | 27 | 7.0 | 16.0 | 0.00 | 0.00 | 0.00 | 28 | 1006.5 |
| 20260502234107 | 76 | 37 | 8.0 | 16.0 | 0.00 | 0.00 | 0.00 | 28 | 1006.5 |
| 20260502234024 | 76 | 26 | 8.0 | 16.0 | 0.00 | 0.00 | 0.00 | 28 | 1006.5 |
| 20260502233930 | 76 | 1 | 9.0 | 16.0 | 0.00 | 0.00 | 0.00 | 28 | 1006.5 |
| 20260502233826 | 76 | 10 | 9.0 | 16.0 | 0.00 | 0.00 | 0.00 | 28 | 1006.5 |
| 20260502233718 | 76 | 15 | 9.0 | 16.0 | 0.00 | 0.00 | 0.00 | 28 | 1006.4 |
| 20260502233633 | 76 | 5 | 10.0 | 16.0 | 0.00 | 0.00 | 0.00 | 28 | 1006.5 |
| 20260502233519 | 76 | 20 | 10.0 | 16.0 | 0.00 | 0.00 | 0.00 | 28 | 1006.4 |
| 20260502233415 | 76 | 352 | 9.0 | 16.0 | 0.00 | 0.00 | 0.00 | 28 | 1006.5 |
| 20260502233320 | 76 | 356 | 8.0 | 16.0 | 0.00 | 0.00 | 0.00 | 28 | 1006.5 |
| 20260502233239 | 76 | 357 | 8.0 | 16.0 | 0.00 | 0.00 | 0.00 | 28 | 1006.5 |
| 20260502233142 | 76 | 25 | 10.0 | 16.0 | 0.00 | 0.00 | 0.00 | 28 | 1006.5 |
| 20260502233047 | 76 | 29 | 9.0 | 16.0 | 0.00 | 0.00 | 0.00 | 28 | 1006.4 |
| 20260502232932 | 76 | 19 | 8.0 | 16.0 | 0.00 | 0.00 | 0.00 | 28 | 1006.4 |
| 20260502232833 | 76 | 20 | 9.0 | 16.0 | 0.00 | 0.00 | 0.00 | 28 | 1006.5 |
| 20260502232716 | 76 | 350 | 10.0 | 16.0 | 0.00 | 0.00 | 0.00 | 28 | 1006.5 |
| 20260502232612 | 76 | 26 | 10.0 | 16.0 | 0.00 | 0.00 | 0.00 | 28 | 1006.5 |
| 20260502232538 | 76 | 10 | 9.0 | 16.0 | 0.00 | 0.00 | 0.00 | 28 | 1006.5 |
| 20260502232421 | 76 | 15 | 9.0 | 15.0 | 0.00 | 0.00 | 0.00 | 28 | 1006.5 |
| 20260502232348 | 76 | 25 | 8.0 | 15.0 | 0.00 | 0.00 | 0.00 | 28 | 1006.5 |
| 20260502232246 | 76 | 358 | 8.0 | 14.0 | 0.00 | 0.00 | 0.00 | 28 | 1006.6 |
| 20260502232129 | 76 | 52 | 9.0 | 14.0 | 0.00 | 0.00 | 0.00 | 28 | 1006.6 |
| 20260502232014 | 76 | 336 | 7.0 | 13.0 | 0.00 | 0.00 | 0.00 | 28 | 1006.6 |
| 20260502231909 | 76 | 350 | 6.0 | 11.0 | 0.00 | 0.00 | 0.00 | 28 | 1006.6 |
| 20260502231811 | 76 | 43 | 4.0 | 11.0 | 0.00 | 0.00 | 0.00 | 28 | 1006.6 |
| 20260502231718 | 76 | 360 | 4.0 | 11.0 | 0.00 | 0.00 | 0.00 | 28 | 1006.6 |
| 20260502231614 | 76 | 23 | 6.0 | 14.0 | 0.00 | 0.00 | 0.00 | 28 | 1006.6 |
| 20260502231519 | 76 | 10 | 6.0 | 14.0 | 0.00 | 0.00 | 0.00 | 28 | 1006.6 |
| 20260502231415 | 76 | 354 | 5.0 | 14.0 | 0.00 | 0.00 | 0.00 | 28 | 1006.6 |
| 20260502231313 | 76 | 15 | 4.0 | 14.0 | 0.00 | 0.00 | 0.00 | 28 | 1006.6 |
| 20260502231222 | 76 | 24 | 6.0 | 14.0 | 0.00 | 0.00 | 0.00 | 28 | 1006.6 |
| 20260502231150 | 76 | 338 | 7.0 | 14.0 | 0.00 | 0.00 | 0.00 | 28 | 1006.6 |
| 20260502231025 | 76 | 322 | 8.0 | 14.0 | 0.00 | 0.00 | 0.00 | 28 | 1006.7 |
| 20260502230922 | 76 | 339 | 7.0 | 14.0 | 0.00 | 0.00 | 0.00 | 28 | 1006.7 |
| 20260502230809 | 76 | 351 | 6.0 | 14.0 | 0.00 | 0.00 | 0.00 | 28 | 1006.7 |
| 20260502230725 | 76 | 352 | 6.0 | 14.0 | 0.00 | 0.00 | 0.00 | 28 | 1006.7 |
| 20260502230633 | 76 | 360 | 6.0 | 14.0 | 0.00 | 0.00 | 0.00 | 28 | 1006.7 |
| 20260502230532 | 76 | 65 | 6.0 | 14.0 | 0.00 | 0.00 | 0.00 | 28 | 1006.8 |
| 20260502230418 | 76 | 25 | 6.0 | 14.0 | 0.00 | 0.00 | 0.00 | 28 | 1006.8 |
| 20260502230315 | 76 | 10 | 7.0 | 14.0 | 0.00 | 0.00 | 0.00 | 28 | 1006.8 |
| 20260502230213 | 76 | 10 | 8.0 | 14.0 | 0.00 | 0.00 | 0.00 | 28 | 1006.9 |
| 20260502230116 | 76 | 10 | 6.0 | 15.0 | 0.00 | 0.00 | 0.00 | 28 | 1006.9 |
| 20260502230013 | 76 | 344 | 6.0 | 16.0 | 0.00 | 0.00 | 0.00 | 28 | 1006.8 |
| 20260502225917 | 76 | 334 | 5.0 | 16.0 | 0.00 | 0.00 | 0.00 | 28 | 1006.8 |
| 20260502225819 | 76 | 20 | 5.0 | 16.0 | 0.00 | 0.00 | 0.00 | 28 | 1006.8 |
| 20260502225717 | 76 | 40 | 5.0 | 16.0 | 0.00 | 0.00 | 0.00 | 29 | 1006.9 |
| 20260502225622 | 76 | 5 | 4.0 | 16.0 | 0.00 | 0.00 | 0.00 | 28 | 1006.8 |
| 20260502225547 | 76 | 356 | 5.0 | 16.0 | 0.00 | 0.00 | 0.00 | 28 | 1006.9 |
| 20260502225442 | 76 | 10 | 7.0 | 16.0 | 0.00 | 0.00 | 0.00 | 28 | 1006.8 |
| 20260502225347 | 76 | 15 | 9.0 | 16.0 | 0.00 | 0.00 | 0.00 | 28 | 1006.8 |
| 20260502225234 | 76 | 356 | 10.0 | 16.0 | 0.00 | 0.00 | 0.00 | 28 | 1006.8 |
| 20260502225114 | 76 | 360 | 10.0 | 16.0 | 0.00 | 0.00 | 0.00 | 28 | 1006.9 |
| 20260502225010 | 76 | 346 | 10.0 | 15.0 | 0.00 | 0.00 | 0.00 | 28 | 1006.8 |
| 20260502224908 | 76 | 356 | 9.0 | 15.0 | 0.00 | 0.00 | 0.00 | 28 | 1006.8 |
| 20260502224812 | 76 | 5 | 8.0 | 14.0 | 0.00 | 0.00 | 0.00 | 28 | 1006.9 |
| 20260502224711 | 76 | 351 | 7.0 | 14.0 | 0.00 | 0.00 | 0.00 | 28 | 1006.9 |
| 20260502224616 | 76 | 358 | 8.0 | 14.0 | 0.00 | 0.00 | 0.00 | 28 | 1006.9 |
| 20260502224512 | 76 | 351 | 10.0 | 14.0 | 0.00 | 0.00 | 0.00 | 28 | 1006.9 |
| 20260502224421 | 76 | 10 | 8.0 | 14.0 | 0.00 | 0.00 | 0.00 | 28 | 1006.9 |
| 20260502224345 | 76 | 25 | 7.0 | 14.0 | 0.00 | 0.00 | 0.00 | 28 | 1006.8 |
| 20260502224223 | 76 | 26 | 8.0 | 14.0 | 0.00 | 0.00 | 0.00 | 28 | 1006.8 |
| 20260502224128 | 76 | 32 | 8.0 | 14.0 | 0.00 | 0.00 | 0.00 | 28 | 1006.9 |
| 20260502224026 | 76 | 346 | 8.0 | 14.0 | 0.00 | 0.00 | 0.00 | 28 | 1006.8 |
| 20260502223931 | 76 | 344 | 9.0 | 17.0 | 0.00 | 0.00 | 0.00 | 28 | 1006.8 |
| 20260502223809 | 76 | 350 | 7.0 | 17.0 | 0.00 | 0.00 | 0.00 | 28 | 1006.9 |
| 20260502223711 | 76 | 335 | 6.0 | 17.0 | 0.00 | 0.00 | 0.00 | 28 | 1006.9 |
| 20260502223615 | 76 | 343 | 8.0 | 17.0 | 0.00 | 0.00 | 0.00 | 28 | 1006.9 |
| 20260502223513 | 76 | 10 | 9.0 | 17.0 | 0.00 | 0.00 | 0.00 | 28 | 1006.9 |
| 20260502223409 | 76 | 5 | 8.0 | 17.0 | 0.00 | 0.00 | 0.00 | 28 | 1006.9 |
| 20260502223316 | 76 | 35 | 8.0 | 17.0 | 0.00 | 0.00 | 0.00 | 28 | 1006.9 |
| 20260502223212 | 76 | 21 | 10.0 | 17.0 | 0.00 | 0.00 | 0.00 | 28 | 1006.9 |
| 20260502223116 | 76 | 354 | 10.0 | 17.0 | 0.00 | 0.00 | 0.00 | 29 | 1007.0 |
| 20260502223017 | 76 | 334 | 8.0 | 16.0 | 0.00 | 0.00 | 0.00 | 28 | 1006.9 |
| 20260502222944 | 76 | 333 | 9.0 | 16.0 | 0.00 | 0.00 | 0.00 | 29 | 1006.9 |
| 20260502222830 | 76 | 334 | 9.0 | 16.0 | 0.00 | 0.00 | 0.00 | 29 | 1006.9 |
| 20260502222747 | 76 | 338 | 9.0 | 16.0 | 0.00 | 0.00 | 0.00 | 29 | 1006.9 |
| 20260502222611 | 76 | 358 | 8.0 | 16.0 | 0.00 | 0.00 | 0.00 | 29 | 1006.9 |
| 20260502222526 | 76 | 15 | 8.0 | 16.0 | 0.00 | 0.00 | 0.00 | 29 | 1007.0 |
| 20260502222432 | 76 | 19 | 10.0 | 16.0 | 0.00 | 0.00 | 0.00 | 29 | 1007.0 |
| 20260502222314 | 76 | 15 | 10.0 | 16.0 | 0.00 | 0.00 | 0.00 | 29 | 1007.0 |
| 20260502222213 | 76 | 10 | 9.0 | 14.0 | 0.00 | 0.00 | 0.00 | 29 | 1007.0 |
| 20260502222115 | 76 | 5 | 9.0 | 13.0 | 0.00 | 0.00 | 0.00 | 28 | 1007.0 |
| 20260502222032 | 76 | 335 | 8.0 | 13.0 | 0.00 | 0.00 | 0.00 | 29 | 1007.0 |
| 20260502221917 | 76 | 346 | 8.0 | 13.0 | 0.00 | 0.00 | 0.00 | 28 | 1007.1 |
| 20260502221815 | 76 | 5 | 8.0 | 13.0 | 0.00 | 0.00 | 0.00 | 29 | 1007.1 |
| 20260502221742 | 76 | 27 | 8.0 | 13.0 | 0.00 | 0.00 | 0.00 | 29 | 1007.1 |
| 20260502221624 | 76 | 36 | 8.0 | 14.0 | 0.00 | 0.00 | 0.00 | 30 | 1007.2 |
| 20260502221526 | 76 | 357 | 6.0 | 16.0 | 0.00 | 0.00 | 0.00 | 29 | 1007.2 |
| 20260502221431 | 76 | 30 | 6.0 | 16.0 | 0.00 | 0.00 | 0.00 | 29 | 1007.2 |
| 20260502221327 | 76 | 10 | 7.0 | 16.0 | 0.00 | 0.00 | 0.00 | 29 | 1007.2 |
| 20260502221223 | 76 | 355 | 8.0 | 16.0 | 0.00 | 0.00 | 0.00 | 30 | 1007.1 |
| 20260502221131 | 76 | 357 | 8.0 | 16.0 | 0.00 | 0.00 | 0.00 | 30 | 1007.1 |
| 20260502221007 | 76 | 10 | 6.0 | 16.0 | 0.00 | 0.00 | 0.00 | 30 | 1007.1 |
| 20260502220909 | 76 | 26 | 7.0 | 16.0 | 0.00 | 0.00 | 0.00 | 30 | 1007.1 |
| 20260502220814 | 76 | 352 | 9.0 | 16.0 | 0.00 | 0.00 | 0.00 | 30 | 1007.1 |
| 20260502220712 | 76 | 358 | 10.0 | 16.0 | 0.00 | 0.00 | 0.00 | 30 | 1007.2 |
| 20260502220616 | 76 | 31 | 9.0 | 14.0 | 0.00 | 0.00 | 0.00 | 31 | 1007.1 |
| 20260502220532 | 76 | 20 | 10.0 | 14.0 | 0.00 | 0.00 | 0.00 | 31 | 1007.1 |
| 20260502220436 | 76 | 15 | 9.0 | 14.0 | 0.00 | 0.00 | 0.00 | 31 | 1007.1 |
| 20260502220321 | 76 | 358 | 8.0 | 14.0 | 0.00 | 0.00 | 0.00 | 30 | 1007.1 |
| 20260502220247 | 77 | 346 | 7.0 | 14.0 | 0.00 | 0.00 | 0.00 | 30 | 1007.1 |
| 20260502220122 | 77 | 343 | 7.0 | 14.0 | 0.00 | 0.00 | 0.00 | 30 | 1007.1 |
| 20260502220033 | 77 | 10 | 7.0 | 14.0 | 0.00 | 0.00 | 0.00 | 31 | 1007.1 |
| 20260502215909 | 77 | 5 | 6.0 | 14.0 | 0.00 | 0.00 | 0.00 | 31 | 1007.2 |
| 20260502215825 | 77 | 5 | 6.0 | 14.0 | 0.00 | 0.00 | 0.00 | 31 | 1007.1 |
| 20260502215732 | 77 | 321 | 7.0 | 14.0 | 0.00 | 0.00 | 0.00 | 31 | 1007.1 |
| 20260502215627 | 77 | 341 | 8.0 | 14.0 | 0.00 | 0.00 | 0.00 | 31 | 1007.1 |
| 20260502215533 | 77 | 332 | 7.0 | 14.0 | 0.00 | 0.00 | 0.00 | 31 | 1007.1 |
| 20260502215434 | 77 | 22 | 9.0 | 14.0 | 0.00 | 0.00 | 0.00 | 30 | 1007.2 |
| 20260502215316 | 77 | 346 | 9.0 | 14.0 | 0.00 | 0.00 | 0.00 | 31 | 1007.3 |
| 20260502215214 | 77 | 10 | 9.0 | 12.0 | 0.00 | 0.00 | 0.00 | 31 | 1007.3 |
| 20260502215119 | 77 | 23 | 8.0 | 12.0 | 0.00 | 0.00 | 0.00 | 32 | 1007.3 |
| 20260502215016 | 77 | 342 | 8.0 | 12.0 | 0.00 | 0.00 | 0.00 | 32 | 1007.3 |
| 20260502214913 | 77 | 341 | 8.0 | 12.0 | 0.00 | 0.00 | 0.00 | 32 | 1007.3 |
| 20260502214820 | 77 | 25 | 9.0 | 12.0 | 0.00 | 0.00 | 0.00 | 31 | 1007.3 |
| 20260502214722 | 77 | 352 | 9.0 | 12.0 | 0.00 | 0.00 | 0.00 | 31 | 1007.3 |
| 20260502214631 | 77 | 15 | 9.0 | 12.0 | 0.00 | 0.00 | 0.00 | 31 | 1007.3 |
| 20260502214507 | 77 | 350 | 7.0 | 12.0 | 0.00 | 0.00 | 0.00 | 31 | 1007.3 |
| 20260502214424 | 77 | 317 | 6.0 | 10.0 | 0.00 | 0.00 | 0.00 | 32 | 1007.4 |
| 20260502214309 | 77 | 15 | 6.0 | 12.0 | 0.00 | 0.00 | 0.00 | 32 | 1007.4 |
| 20260502214226 | 77 | 15 | 6.0 | 12.0 | 0.00 | 0.00 | 0.00 | 32 | 1007.4 |
| 20260502214132 | 77 | 354 | 6.0 | 12.0 | 0.00 | 0.00 | 0.00 | 32 | 1007.4 |
| 20260502214010 | 78 | 343 | 6.0 | 12.0 | 0.00 | 0.00 | 0.00 | 32 | 1007.4 |